GFSCGP_850_spd_024.txt.gz
Wind_Speed
9 7 4 9 13 12 15 13 15 12 12 10 11 14 13 16 15 18 16 21 21 17 16 16 15 14 15 20 19 17 22 21 17 19 9 8 6 9 11 11 8 7 2 2
6 2 7 14 13 13 15 10 8 8 5 7 11 11 15 15 18 19 19 23 24 23 22 16 14 15 16 16 17 19 18 16 11 9 10 10 12 11 11 9 6 5 4 5
6 5 18 19 9 12 13 3 8 6 9 9 9 13 15 13 17 20 22 22 24 24 24 18 16 16 16 18 17 15 11 11 15 12 15 15 18 16 12 2 4 4 8 6
9 24 23 6 13 10 6 11 4 11 11 7 6 6 6 16 12 14 18 21 22 22 23 21 18 17 20 21 18 12 14 13 16 18 16 13 11 12 13 13 10 0 7 8
11 10 12 9 2 12 3 15 12 16 8 4 11 6 10 20 11 15 15 17 19 22 22 22 20 22 17 16 16 18 19 18 17 13 18 16 14 13 10 8 2 1 7 9
6 12 2 6 9 13 12 10 13 9 8 2 15 11 7 14 19 8 13 17 17 17 19 19 21 20 22 21 22 24 19 16 16 16 17 18 17 16 11 7 4 10 11 10
10 11 6 14 10 3 8 9 6 6 6 4 14 7 9 17 10 17 28 22 20 18 20 23 23 24 23 24 25 23 20 19 19 21 21 21 19 14 9 8 9 12 10 12
7 8 9 7 11 6 17 11 2 4 3 11 9 5 3 17 18 29 31 22 21 20 21 24 25 24 23 22 22 22 23 20 18 17 18 17 11 6 8 12 10 9 10 11
6 4 18 5 3 4 6 2 3 9 14 3 4 17 6 8 9 6 23 22 21 21 22 24 24 24 23 22 23 24 22 21 19 20 19 12 7 8 7 9 7 7 10 11
9 5 27 8 4 7 6 7 3 2 2 4 8 13 4 6 5 3 12 18 20 21 24 24 24 23 22 22 22 23 23 23 24 23 16 10 9 7 9 8 6 9 11 13
5 18 6 6 7 9 6 6 6 8 3 1 3 3 7 7 5 5 6 20 22 24 25 25 24 24 22 21 23 24 24 25 25 21 14 11 8 11 10 7 8 11 14 13
6 3 4 10 2 6 8 9 10 3 4 2 1 7 4 5 4 3 5 10 24 25 26 27 25 24 22 22 23 24 25 24 20 20 15 9 12 13 8 9 9 11 14 14
1 2 4 8 7 8 8 11 10 5 3 5 3 4 4 4 1 1 5 9 14 23 24 27 29 26 24 24 26 24 26 23 20 17 14 14 14 12 13 11 12 14 15 15
4 5 8 6 10 4 7 12 10 10 3 3 8 13 8 9 9 7 10 6 10 17 20 23 28 28 26 25 28 26 26 23 18 16 18 13 13 14 13 12 14 16 17 17
2 7 10 13 15 3 10 11 8 12 10 10 10 14 12 9 8 5 3 8 9 13 19 22 23 26 26 25 26 27 26 24 20 21 15 13 16 14 14 15 16 17 18 20
5 1 3 3 11 14 12 14 13 15 13 14 14 13 10 8 8 11 10 9 5 10 13 12 16 17 21 23 25 26 25 24 17 14 17 16 15 13 13 17 17 19 19 18
6 3 2 2 5 6 5 9 16 15 14 12 10 10 7 11 6 6 5 9 6 9 11 12 12 17 18 21 23 26 24 22 15 20 16 12 13 10 15 16 16 17 17 19
3 3 1 1 1 1 7 3 5 5 8 10 11 9 11 15 15 8 9 8 10 4 7 9 11 15 17 18 19 22 20 20 18 14 11 12 10 11 13 18 19 16 17 19
6 4 2 2 4 7 11 2 2 1 3 11 10 11 13 12 11 13 10 5 5 7 8 10 11 11 13 14 16 18 17 13 12 11 7 4 10 16 18 15 15 18 19 19
3 4 1 3 2 4 0 4 3 2 2 10 10 9 10 13 3 4 12 8 7 10 12 11 10 9 8 10 11 13 15 12 7 4 4 5 13 19 19 16 19 20 18 17
2 1 4 3 2 5 2 5 1 2 3 4 7 10 11 7 7 5 10 12 13 13 11 7 1 7 8 11 12 13 11 12 9 4 6 11 16 16 16 18 17 17 19 16
6 6 3 2 2 5 5 5 3 4 5 9 9 10 9 10 12 14 14 12 9 11 4 3 9 14 12 11 15 13 9 5 6 7 9 15 17 16 12 17 20 21 16 17
3 4 2 7 4 5 5 3 3 4 6 6 7 9 11 12 13 13 13 9 5 7 9 9 12 12 11 8 4 2 4 3 4 8 16 17 13 13 17 19 20 19 16 16
4 5 1 2 4 6 4 3 2 3 7 9 11 12 11 11 11 12 10 6 8 12 12 8 7 7 6 6 7 5 3 2 10 15 14 11 15 16 18 17 18 15 20 17
0 9 6 6 9 6 6 12 9 7 7 7 9 9 10 9 10 4 10 12 14 11 9 4 5 3 1 1 2 2 7 13 12 13 14 14 15 16 17 18 15 19 23 21
8 3 3 3 9 3 10 11 9 10 10 10 9 11 14 14 14 12 13 8 7 5 2 4 4 3 3 2 5 9 11 13 14 14 14 15 16 16 16 15 19 23 23 21

GFSCGP_850_spd_027.txt.gz
Wind_Speed
12 1 3 4 2 4 9 6 10 9 6 9 8 8 9 19 20 21 20 25 27 23 23 22 21 23 27 27 25 25 20 22 25 27 30 16 12 11 14 11 9 9 9 7
6 2 3 1 8 8 13 9 14 5 7 5 3 8 10 10 12 31 24 25 28 28 29 25 20 28 27 32 31 25 20 20 19 28 27 14 13 18 15 11 11 10 9 7
2 6 5 9 10 13 4 4 8 3 2 3 3 5 6 3 18 26 28 33 34 33 31 30 30 20 27 31 30 18 18 17 17 21 21 16 18 17 16 14 13 11 7 5
2 11 5 7 14 3 4 6 5 4 5 1 4 1 4 4 3 2 23 32 37 35 36 32 31 29 21 25 22 17 15 15 24 24 23 25 26 26 20 15 14 9 6 9
4 4 9 8 14 4 7 4 3 2 2 1 1 5 6 4 8 5 8 8 32 39 40 35 31 29 26 19 21 12 14 19 18 20 25 24 26 24 22 20 16 12 9 13
7 9 2 7 7 3 7 2 3 3 2 2 5 5 3 5 20 4 9 18 13 24 38 34 29 25 24 22 21 20 22 23 27 27 27 25 27 29 27 25 16 9 11 16
7 8 5 3 3 5 5 5 3 5 6 4 10 2 11 13 8 14 21 26 13 17 31 31 29 29 24 21 22 26 29 30 29 26 28 27 27 27 23 18 13 12 14 13
3 3 4 4 3 4 4 5 4 4 2 4 11 4 6 18 21 29 32 22 15 24 26 28 30 29 27 28 28 30 29 28 28 29 28 26 23 20 18 16 17 16 13 12
4 1 5 10 4 2 4 1 6 6 4 4 5 8 6 10 7 7 16 16 22 21 24 27 29 29 30 29 29 26 26 26 27 27 28 25 23 20 17 15 13 12 10 11
5 2 3 8 9 14 4 3 1 3 4 4 4 3 2 5 5 9 10 21 25 24 24 26 28 27 25 25 24 24 25 26 25 24 22 18 16 15 14 13 11 9 12 13
5 4 5 3 5 12 1 3 2 3 5 4 1 4 3 5 5 10 15 30 32 32 32 31 30 28 27 25 22 26 25 25 25 23 20 18 14 13 13 12 11 11 13 15
10 5 4 15 15 6 4 5 5 5 5 2 4 5 3 6 6 9 14 30 36 36 35 35 34 32 30 29 27 28 29 27 28 27 21 16 13 14 13 11 11 13 13 15
2 0 2 7 6 5 3 4 4 4 3 4 5 5 1 6 5 6 8 8 32 34 34 36 36 37 36 33 31 31 32 31 29 28 22 17 14 14 13 10 14 14 16 18
4 3 6 6 7 2 3 3 5 5 4 3 5 5 10 6 8 10 12 7 15 32 34 36 40 40 40 38 35 33 32 33 30 27 20 18 13 14 13 19 16 16 17 21
4 4 1 3 5 5 4 3 6 5 6 6 8 7 10 0 6 11 14 11 8 7 18 29 38 40 38 35 31 30 31 32 31 26 19 16 14 14 19 14 15 13 20 20
1 1 2 2 6 7 4 6 7 7 6 2 3 6 6 12 12 14 13 12 8 6 4 7 7 35 32 34 30 30 31 31 32 28 20 14 10 12 13 12 12 14 21 21
5 5 3 3 4 5 6 7 7 5 4 4 4 5 8 10 12 14 12 12 13 5 3 4 7 11 20 26 26 29 30 31 30 22 12 16 19 16 11 9 8 18 22 23
5 5 3 3 3 1 8 1 5 5 5 8 8 8 10 11 24 26 16 16 16 13 10 7 5 5 8 13 19 25 28 27 21 14 22 19 13 10 9 5 11 16 23 20
4 5 2 4 4 5 7 3 2 3 4 5 7 8 15 13 13 17 17 15 13 10 8 7 5 3 6 8 15 23 24 24 22 24 21 14 7 3 4 9 13 20 21 26
6 5 4 2 4 6 6 3 6 4 2 6 12 9 12 13 5 3 10 10 8 12 8 3 3 8 10 14 23 27 27 26 22 14 13 12 5 5 7 11 18 19 24 16
3 3 5 2 2 7 6 7 2 6 6 7 10 9 10 3 2 4 9 5 4 5 1 4 6 9 16 18 21 23 20 16 12 7 3 8 6 6 13 16 16 16 21 24
6 6 3 3 3 6 9 4 6 6 10 9 8 7 6 5 7 9 8 7 4 6 6 5 6 11 11 10 9 12 11 4 4 15 8 3 7 14 14 12 17 21 22 19
1 6 5 6 6 9 8 13 14 11 12 12 11 11 7 9 9 10 10 9 9 8 7 7 5 6 5 2 1 6 13 15 2 3 6 11 12 11 13 18 19 17 17 18
1 6 4 5 2 3 8 19 21 17 14 10 9 6 5 6 5 9 13 13 11 9 8 7 8 8 8 8 10 4 2 4 4 9 12 12 12 14 14 15 15 15 16 19
5 5 6 2 3 21 18 17 16 15 13 10 8 7 9 4 11 12 13 11 9 10 11 10 9 7 5 4 3 1 5 8 11 13 13 13 13 14 15 16 16 15 17 21
4 5 4 4 5 16 11 16 10 11 11 9 6 8 10 8 10 8 11 11 10 9 9 9 9 7 5 6 8 11 13 15 16 15 15 15 16 16 17 18 17 17 22 24

GFSCGP_850_spd_033.txt.gz
Wind_Speed
3 4 2 4 4 2 3 2 2 4 5 5 8 5 14 21 17 17 26 30 32 34 30 31 33 33 34 34 34 31 31 31 30 30 31 29 28 24 19 14 9 10 11 11
4 1 5 5 7 4 6 5 9 9 7 8 7 6 5 12 19 28 31 32 36 36 36 35 34 35 34 36 37 36 34 31 32 32 31 31 28 25 17 11 12 13 13 12
4 5 1 1 2 1 2 3 7 8 4 4 6 3 4 4 10 20 25 37 37 40 42 41 38 38 35 37 34 36 37 35 35 34 33 31 29 23 20 17 17 15 13 13
4 3 2 2 2 4 5 3 6 4 1 2 4 3 4 6 13 9 25 29 38 43 43 44 45 44 43 41 37 37 39 35 35 35 35 34 34 32 27 20 19 16 17 15
6 4 3 2 5 6 9 3 5 1 3 3 4 4 5 0 8 15 21 34 36 44 46 46 48 46 44 44 39 39 39 38 35 37 36 34 34 31 25 22 21 20 19 16
5 4 3 5 2 6 3 2 4 4 2 2 3 4 5 5 12 11 21 31 37 40 45 45 44 44 44 45 42 39 40 30 33 34 32 35 33 29 27 26 25 23 20 19
2 3 2 2 2 4 5 5 3 4 4 4 2 1 8 7 8 9 12 30 40 39 40 45 46 48 45 45 42 41 32 33 31 29 32 29 32 29 28 27 28 27 25 22
4 4 4 1 4 4 1 5 4 3 3 4 3 4 6 5 10 13 16 19 25 28 40 45 46 45 44 41 39 39 28 27 25 30 30 27 29 31 31 31 32 29 26 21
4 4 2 3 2 3 3 2 3 6 3 2 3 6 10 6 4 9 10 15 17 19 29 42 43 42 39 35 33 25 25 27 25 29 27 28 30 30 29 31 30 28 22 18
6 1 3 4 2 4 2 6 1 3 2 3 4 4 5 5 6 3 7 12 15 19 24 31 36 37 37 31 29 23 26 25 25 30 26 27 29 28 29 31 32 29 27 23
5 4 4 1 5 9 2 2 3 4 5 4 1 5 7 6 5 7 10 6 13 19 22 24 27 33 34 30 29 24 26 27 29 30 27 30 29 29 30 30 29 28 24 21
8 6 4 9 3 4 3 2 5 4 4 1 4 6 4 8 6 8 12 11 11 17 20 21 28 35 36 34 32 30 27 30 33 32 30 26 25 27 28 30 28 24 22 18
7 1 2 7 6 4 1 4 4 5 3 6 5 6 3 6 8 11 15 17 14 17 24 28 32 35 36 36 35 32 34 37 35 33 28 25 27 27 29 28 25 25 23 19
13 4 7 7 8 4 2 3 4 5 3 3 6 6 6 8 7 12 18 19 17 19 25 30 31 34 34 35 35 35 38 39 36 29 27 27 28 29 29 27 25 23 17 16
6 5 3 3 3 4 5 5 6 7 5 6 8 7 8 4 7 9 11 8 9 15 22 29 31 31 34 37 38 39 40 38 33 30 30 29 31 30 26 25 21 17 19 15
2 3 3 3 3 3 4 7 6 5 4 7 5 6 3 3 3 12 8 9 11 8 4 10 19 27 34 37 38 38 36 34 34 31 30 31 29 24 21 20 24 20 19 13
4 6 4 4 2 2 6 8 7 7 6 6 6 8 2 2 5 10 15 15 14 11 8 6 2 3 9 19 26 30 32 31 31 33 31 31 27 25 25 24 22 18 11 5
6 6 3 3 3 1 7 2 7 5 2 4 5 5 4 8 14 15 14 15 13 9 8 6 4 1 2 6 12 19 24 26 28 28 28 27 27 24 21 20 16 7 9 21
2 6 3 4 4 4 4 4 6 5 3 3 6 7 11 16 16 12 10 7 6 6 5 4 4 4 5 8 12 16 19 21 23 23 21 20 19 17 11 6 9 19 23 13
5 6 4 3 5 8 8 4 6 6 2 6 6 7 9 5 3 3 5 5 4 3 2 0 2 2 2 2 6 10 12 16 18 19 20 17 8 4 7 13 17 15 10 14
3 4 5 2 3 7 8 5 9 6 7 17 18 16 14 5 5 12 10 7 5 4 4 3 4 3 5 4 0 3 9 12 14 15 13 12 16 16 16 11 10 12 13 14
7 7 4 3 3 7 8 6 8 6 13 24 18 14 13 14 15 16 13 11 9 9 9 9 9 12 13 11 6 9 6 5 4 9 12 13 8 8 10 11 12 13 15 19
2 7 6 8 6 4 6 4 8 22 29 22 20 19 19 21 20 18 15 13 13 13 13 12 11 12 12 9 5 2 2 1 1 3 3 6 9 11 13 15 16 18 19 22
3 5 4 4 2 4 7 13 24 21 24 21 18 21 21 22 20 18 17 17 16 14 13 11 9 9 7 7 8 8 7 5 4 5 8 10 12 14 15 17 19 21 22 24
6 10 7 1 1 5 7 14 22 21 21 22 21 19 19 18 20 20 20 18 16 14 12 9 9 12 12 10 7 5 3 4 6 8 10 11 13 15 17 19 21 23 25 27
7 7 6 6 19 9 15 21 22 23 22 20 19 19 17 16 21 20 20 17 15 15 15 14 13 11 9 5 2 3 5 8 11 14 16 18 21 22 24 26 29 27 28 29

GFSCGP_850_spd_036.txt.gz
Wind_Speed
3 4 2 5 5 4 3 2 3 5 4 6 9 5 11 19 16 15 24 23 24 24 24 25 25 29 28 27 26 27 27 26 25 26 27 25 24 24 23 17 15 16 16 16
5 3 6 4 3 4 2 4 6 6 3 5 4 6 12 15 22 26 30 29 30 30 28 29 27 29 31 30 29 30 30 29 27 27 26 25 23 23 19 19 18 15 13 13
5 4 2 3 3 4 4 2 5 4 5 1 4 2 5 5 11 20 24 32 30 32 34 34 34 35 32 34 33 33 32 29 29 28 28 27 26 25 25 24 20 15 15 16
4 4 3 1 2 4 2 5 3 5 1 1 3 3 4 5 15 8 25 31 35 33 33 33 36 37 38 36 33 34 33 32 31 30 30 31 31 32 31 27 21 19 19 19
8 2 5 3 5 5 8 3 2 2 2 3 3 4 4 4 7 18 21 33 39 38 37 37 39 38 37 36 36 33 33 31 34 32 32 33 34 34 32 25 24 23 22 20
5 2 4 5 4 6 1 2 6 4 3 2 3 4 5 5 12 17 21 30 42 41 41 41 38 39 39 37 36 35 35 33 35 35 36 36 37 37 32 27 28 26 24 20
2 3 2 3 2 2 3 5 3 3 4 4 3 2 8 8 4 8 12 30 45 47 46 44 43 42 43 42 41 39 36 34 38 39 38 38 40 38 31 28 29 28 27 24
5 5 6 3 6 7 3 6 5 2 2 3 3 5 6 2 8 11 17 20 29 40 44 48 44 45 44 43 44 41 39 24 36 42 40 39 41 37 31 28 32 30 28 27
4 4 1 1 1 2 3 2 4 6 3 2 3 6 9 3 4 7 6 5 17 26 32 37 43 46 44 43 42 38 38 34 26 25 33 32 35 32 27 28 33 29 29 30
7 2 1 1 2 3 2 6 3 3 2 3 4 4 5 7 4 2 5 8 7 14 24 30 34 39 38 42 40 38 33 30 27 23 23 27 28 27 27 29 29 28 30 33
5 4 4 0 5 8 2 2 4 5 4 4 1 5 7 7 6 6 5 7 11 12 15 18 21 23 23 25 34 33 30 28 25 25 25 28 29 28 27 28 24 26 29 31
7 6 4 9 3 3 5 6 6 5 4 1 4 6 5 8 6 7 11 6 6 6 11 16 18 21 24 22 27 32 24 20 18 21 26 28 29 27 24 22 25 28 30 26
7 1 2 7 5 4 4 4 3 5 3 6 5 6 3 7 8 10 11 11 9 7 8 13 18 20 23 27 30 27 21 21 20 22 25 26 27 24 22 23 26 27 27 22
12 4 7 8 8 4 4 6 5 5 4 4 6 6 8 8 6 12 14 16 14 12 11 14 17 19 22 24 23 22 22 23 23 23 25 25 26 23 26 27 27 25 21 20
7 7 5 4 4 4 5 4 8 7 5 6 7 7 9 7 5 10 12 7 7 9 12 13 16 18 18 20 23 24 25 27 27 25 25 26 27 27 27 27 25 24 21 22
1 5 4 2 2 2 3 5 5 4 3 5 6 7 7 4 2 3 2 5 11 8 4 1 3 7 12 15 19 22 24 25 26 25 24 28 28 29 27 25 24 26 29 26
7 7 4 4 3 4 7 9 9 6 5 7 7 10 6 2 3 5 10 14 16 15 13 11 10 7 4 4 6 10 14 18 20 23 26 27 27 24 21 20 19 20 22 23
8 7 2 3 2 2 7 1 3 8 7 6 5 3 7 10 10 11 10 12 14 13 12 10 8 7 5 4 6 8 10 13 15 18 20 21 21 20 18 19 20 19 12 10
2 6 3 5 4 5 4 5 7 8 8 7 6 6 15 20 15 10 9 10 11 10 10 8 7 6 5 5 6 7 6 7 8 10 12 12 14 17 18 16 15 13 21 23
5 6 5 3 5 8 8 5 8 4 4 8 11 9 12 11 4 3 8 8 8 6 5 4 4 4 3 4 5 4 2 0 3 6 10 12 13 11 12 13 17 21 17 16
3 3 5 2 3 7 8 4 10 6 8 18 26 26 20 5 5 14 11 8 6 5 6 6 6 7 8 8 7 7 9 8 8 5 4 5 9 15 17 13 11 11 13 15
7 7 3 3 3 7 9 5 9 7 3 27 26 24 18 12 15 17 13 9 8 8 10 10 11 13 14 13 8 11 9 8 4 1 3 6 6 6 8 10 11 14 16 19
3 6 7 9 7 4 14 6 15 9 13 25 25 22 20 21 20 18 16 14 13 13 14 14 13 15 14 11 8 7 8 5 4 3 3 4 7 9 11 13 15 17 19 23
3 4 4 4 5 6 10 16 12 16 22 26 24 23 22 22 22 21 19 18 16 16 15 13 12 13 13 10 8 7 6 4 2 3 5 8 10 12 14 16 18 21 22 24
4 9 7 3 4 2 13 17 16 19 21 24 22 22 23 22 23 21 21 19 18 17 15 12 12 11 10 8 5 4 3 3 5 8 10 12 15 17 20 21 23 25 26 26
7 7 6 7 15 12 11 22 22 23 24 23 25 23 20 20 21 21 21 20 18 16 15 13 12 9 8 5 3 2 4 7 10 12 14 17 21 23 25 28 31 29 30 31

GFSCGP_850_spd_039.txt.gz
Wind_Speed
1 2 5 8 5 4 4 3 0 2 3 3 9 6 13 18 13 13 15 16 18 19 16 20 22 24 26 27 27 27 26 22 20 20 22 24 24 23 23 22 20 18 15 17
1 3 3 3 5 5 3 1 2 1 2 6 5 6 2 15 14 18 17 18 20 20 21 23 25 26 28 29 29 28 27 24 23 22 24 25 23 23 23 24 21 18 19 16
4 3 2 3 3 4 2 1 2 3 1 2 2 2 2 6 12 13 18 17 21 23 23 25 29 31 32 33 32 30 29 27 27 26 25 25 24 25 27 25 21 21 18 16
4 1 2 2 4 3 2 1 3 3 1 2 1 2 4 5 10 12 20 20 26 26 26 27 29 32 33 35 34 33 31 29 29 28 29 29 30 30 30 24 21 21 20 19
4 4 3 5 5 5 4 3 1 1 2 2 1 1 1 1 9 17 23 26 30 32 32 32 33 34 33 31 32 31 30 29 30 31 30 31 31 31 29 26 24 24 23 21
3 2 5 5 3 4 4 2 4 3 2 1 1 2 3 4 7 8 21 27 35 35 36 36 32 32 34 33 33 32 31 31 29 28 31 31 32 32 31 29 28 27 25 24
0 3 2 4 3 1 2 2 1 1 1 2 3 1 6 5 6 8 12 23 34 42 40 39 38 36 35 34 33 33 34 33 29 24 30 32 32 34 34 32 31 30 30 30
6 3 7 4 5 6 5 4 4 3 3 1 1 4 2 3 7 11 11 17 18 27 39 43 42 39 37 36 35 35 35 32 24 21 25 32 33 34 35 34 32 32 31 31
4 4 1 2 2 3 3 3 2 6 2 0 1 4 8 1 1 3 4 6 9 15 22 30 37 42 40 39 36 36 35 33 28 24 22 26 29 32 31 30 33 31 30 31
6 1 1 2 2 3 2 6 2 1 3 3 2 3 3 3 2 3 7 5 7 6 11 15 19 24 32 37 33 32 33 30 27 29 30 24 22 26 31 33 32 30 30 32
5 2 2 2 5 7 3 3 4 3 1 3 2 4 6 6 2 4 6 6 5 7 7 9 13 17 19 20 22 23 25 26 26 25 23 25 19 20 23 24 27 27 29 34
5 4 4 7 1 2 3 6 6 3 5 1 0 5 3 7 6 7 9 4 2 5 6 7 8 9 10 10 11 13 13 17 21 18 17 17 17 19 22 23 25 25 28 33
7 2 2 2 1 1 4 5 4 4 2 7 4 4 1 3 6 7 12 8 6 4 6 10 12 13 13 14 16 16 14 13 15 15 17 20 22 24 25 23 20 22 27 30
15 4 6 10 7 4 4 5 5 5 3 4 6 6 7 7 6 12 9 12 13 11 8 8 8 9 10 11 12 13 14 16 18 19 20 21 21 18 19 18 20 20 24 25
6 7 6 4 3 5 5 6 11 9 6 7 8 9 8 7 6 7 11 10 4 1 2 4 4 4 4 4 6 10 13 15 14 13 14 14 14 15 16 18 18 18 20 24
3 4 5 4 3 5 5 3 9 10 2 8 5 10 9 5 6 3 1 4 10 11 11 10 8 7 5 3 3 4 5 6 7 8 9 11 12 15 18 18 17 17 20 25
4 7 4 4 1 1 4 8 10 4 5 6 8 11 4 6 6 7 8 12 15 17 19 19 17 15 12 8 5 3 1 2 4 6 9 11 13 15 16 16 19 20 21 25
6 4 2 3 2 7 2 1 3 11 9 10 8 7 6 5 8 11 12 16 16 16 18 17 14 12 10 8 6 5 4 4 3 3 4 6 7 10 11 13 15 15 17 16
3 5 3 5 5 4 2 5 7 7 15 11 13 6 8 17 12 5 12 14 16 16 15 14 11 10 9 8 8 7 6 7 6 4 2 1 3 5 7 9 11 9 17 15
5 3 3 3 5 9 4 3 8 5 13 8 13 10 19 17 7 5 15 15 15 13 13 13 13 12 10 10 9 8 10 9 9 9 8 6 3 1 4 6 12 15 15 14
3 2 5 3 3 6 6 5 12 6 12 11 19 22 25 9 3 22 20 17 14 13 13 13 13 13 13 12 11 12 13 12 11 9 6 3 3 7 9 7 6 7 10 13
7 8 4 3 2 6 11 8 10 7 4 10 21 27 23 14 20 26 21 18 16 15 15 14 16 17 16 14 10 13 12 12 8 5 2 1 1 2 4 6 8 11 14 17
4 6 7 9 7 3 26 8 24 8 7 10 26 31 28 24 26 26 24 20 19 18 18 18 17 18 16 14 11 10 10 8 5 4 2 1 4 6 8 10 12 14 17 20
3 4 4 3 6 8 18 24 13 17 13 12 26 33 29 26 27 27 25 24 23 21 21 19 18 17 17 14 11 9 9 7 4 2 2 5 7 9 11 13 16 18 20 22
4 7 6 3 4 2 16 24 22 19 16 16 23 29 30 27 29 28 27 26 25 24 22 20 18 17 16 14 11 10 7 5 1 2 5 7 10 13 15 17 19 20 20 20
7 7 5 7 16 13 17 33 26 23 21 22 28 27 26 27 30 29 28 27 27 25 23 21 18 16 16 12 9 7 4 2 3 6 8 11 14 16 18 20 21 21 22 22

GFSCGP_850_spd_042.txt.gz
Wind_Speed
8 9 9 8 6 6 4 6 6 1 2 4 8 10 7 14 14 14 13 14 15 16 18 20 22 24 25 24 24 25 24 21 19 18 17 16 17 18 19 20 20 20 20 18
6 10 1 2 5 6 6 6 4 1 2 5 7 7 5 13 15 15 14 15 15 15 17 21 23 24 25 27 28 28 27 24 21 17 18 16 17 17 17 20 22 21 21 20
12 5 5 6 8 8 9 7 3 3 1 6 6 7 8 9 13 13 15 15 16 18 20 21 24 26 26 28 27 27 25 23 21 19 16 16 16 17 18 24 25 25 25 22
10 4 6 6 7 10 11 2 3 5 6 4 3 4 7 9 12 15 17 19 18 20 21 21 23 27 28 27 25 25 24 23 23 23 20 22 21 19 20 23 25 24 25 23
10 9 10 8 10 8 7 1 4 5 6 4 6 6 8 5 9 14 20 23 23 23 24 26 27 27 26 25 26 26 26 26 25 24 24 22 22 19 18 19 22 25 25 27
9 2 4 3 4 7 5 3 4 4 5 6 4 6 4 5 5 3 6 22 25 25 26 26 24 24 25 26 27 28 29 29 27 24 23 27 25 23 28 28 28 28 27 27
13 12 6 6 9 7 9 7 6 6 6 7 3 6 8 2 3 6 8 8 18 27 27 28 28 29 27 28 29 30 31 32 32 25 25 27 26 30 34 30 31 30 31 31
14 12 14 11 12 11 13 11 6 4 5 4 3 6 2 3 6 8 8 10 11 16 25 30 29 28 28 28 29 30 32 33 33 30 24 24 30 33 36 29 30 30 31 30
14 12 6 8 6 9 7 8 1 2 1 4 4 5 8 1 2 2 4 4 4 8 16 21 25 28 25 25 27 27 27 29 31 28 25 12 28 29 27 26 28 27 29 28
7 10 6 7 7 4 5 9 5 4 5 6 4 5 2 4 4 1 2 4 3 1 4 9 12 16 20 22 21 22 23 23 22 22 30 26 27 20 19 21 23 24 23 26
10 9 7 7 11 12 6 6 4 3 3 5 5 5 2 6 2 3 1 2 4 2 0 3 6 8 10 13 15 16 18 18 18 18 26 28 25 23 20 18 18 18 20 21
15 9 8 14 5 2 7 9 10 6 6 3 5 8 5 9 6 6 4 4 4 5 4 2 5 6 7 8 10 11 12 13 14 15 17 15 16 17 19 19 20 21 21 22
13 10 11 10 6 4 8 10 10 6 2 11 7 5 5 3 6 8 8 6 7 5 4 4 6 8 10 11 12 11 11 12 12 12 14 16 18 21 21 21 21 21 18 17
21 13 16 12 13 8 8 12 14 14 7 10 11 13 9 12 11 11 7 5 6 9 7 7 8 8 8 9 9 10 11 12 13 13 15 16 17 15 14 14 13 14 14 17
11 15 16 16 16 15 17 15 14 16 16 13 13 14 13 12 12 10 4 5 4 4 6 7 8 8 8 8 8 9 9 9 8 8 8 9 9 8 9 8 10 12 15 17
8 12 10 12 12 13 15 16 16 18 17 13 17 18 14 17 8 8 5 3 5 7 8 8 9 10 9 10 9 8 7 6 5 5 5 4 5 6 7 9 11 12 13 14
8 9 7 14 10 9 10 14 16 15 13 16 16 16 15 11 12 11 6 7 10 12 12 13 12 13 12 12 11 10 9 7 6 5 3 2 3 4 6 7 8 10 11 13
6 9 6 6 4 8 12 4 16 18 18 17 16 17 14 12 6 7 7 12 14 15 15 15 15 17 16 14 12 10 9 8 7 7 6 5 4 2 1 1 2 3 5 8
12 8 4 5 9 10 5 6 9 12 18 15 18 17 11 7 10 7 9 12 14 14 15 15 15 15 15 14 13 13 13 13 12 12 11 11 10 8 7 5 3 1 1 6
7 7 8 4 7 9 9 13 13 5 16 9 13 14 11 16 9 7 17 16 16 16 16 16 16 16 16 16 15 15 15 14 14 13 13 12 10 8 6 2 5 7 8 8
5 4 11 10 7 6 3 11 15 9 14 3 9 13 18 14 7 23 24 19 16 15 17 17 16 16 16 16 16 17 16 15 13 12 9 6 3 2 2 3 2 2 4 7
9 9 5 7 6 10 15 12 11 12 3 7 10 14 21 15 16 24 24 21 19 18 18 16 17 17 16 16 15 15 14 13 10 7 6 4 5 4 2 2 4 6 7 9
4 7 5 9 6 4 31 18 25 10 9 10 12 14 21 21 23 25 25 23 21 20 19 18 18 18 17 15 13 14 12 10 9 8 8 6 3 2 2 3 5 5 7 9
6 5 4 2 9 12 17 22 11 15 14 10 11 18 25 27 27 26 24 23 23 21 20 20 20 19 19 16 15 12 12 12 11 9 6 4 1 2 4 5 6 7 10 11
8 9 7 7 12 5 14 20 22 15 15 15 13 22 28 28 29 29 27 26 25 24 22 21 20 19 18 17 15 14 13 11 9 7 5 2 1 2 4 6 8 9 10 14
9 8 6 7 14 13 19 13 20 21 24 20 20 23 25 29 31 29 28 27 27 26 24 22 21 21 20 19 17 16 13 11 8 5 3 0 2 4 4 5 5 14 12 13

GFSCGP_850_spd_045.txt.gz
Wind_Speed
18 12 14 17 14 16 9 10 10 5 5 4 11 8 5 15 12 12 15 15 18 19 22 19 23 24 25 25 25 22 26 28 19 19 17 16 17 17 18 17 18 18 17 19
12 13 15 4 8 8 10 10 12 2 1 7 10 13 3 14 13 15 16 18 17 19 22 23 23 24 23 24 25 25 26 24 22 18 18 17 16 18 18 18 21 21 18 18
15 3 6 7 9 11 10 13 3 8 7 10 12 13 9 9 13 14 16 18 20 21 24 26 26 27 26 27 27 27 26 24 21 20 16 16 15 16 19 19 18 23 21 20
14 13 7 11 11 12 12 12 4 9 11 6 14 2 19 14 13 14 17 19 21 24 24 26 28 29 30 29 27 27 26 26 26 22 21 20 19 20 18 21 22 23 22 21
16 14 12 13 12 10 10 1 6 10 12 14 11 8 13 10 14 18 18 20 21 24 26 27 29 30 29 28 29 29 28 27 25 25 24 22 19 17 17 19 20 21 18 23
17 16 14 16 12 6 8 6 10 10 11 9 13 10 14 8 13 13 21 24 24 24 26 27 27 27 29 30 30 31 30 29 28 27 25 24 22 20 21 22 22 19 20 20
19 15 15 9 8 11 10 13 9 9 6 10 7 5 3 15 5 2 2 10 25 27 26 27 28 29 29 30 31 33 31 32 31 30 30 26 28 24 26 28 26 23 21 24
16 18 20 13 16 14 15 16 7 5 7 6 5 6 4 9 3 4 7 6 10 20 29 30 30 30 30 30 30 31 31 31 31 32 34 30 32 30 26 24 25 30 33 37
16 19 13 19 14 18 18 18 13 4 8 5 7 7 6 6 3 4 4 3 8 13 20 31 32 31 30 29 30 33 30 28 28 34 37 30 36 33 26 26 30 31 31 31
13 10 12 12 11 16 13 13 10 9 6 9 11 10 1 6 5 4 2 2 3 1 6 16 22 29 30 28 27 29 27 27 29 36 34 35 36 31 27 26 24 19 29 29
18 13 11 12 14 16 13 9 9 6 8 6 7 5 5 3 2 4 2 2 2 2 5 6 11 15 19 22 24 25 25 25 26 27 21 28 32 24 21 21 17 19 24 24
22 11 10 16 18 22 15 19 17 10 12 7 7 12 14 7 9 4 9 5 3 3 1 5 8 10 13 16 20 22 22 23 23 24 20 25 26 21 23 20 18 20 20 20
20 12 12 14 10 11 12 13 11 13 9 12 9 7 4 0 5 7 10 10 6 8 6 6 8 9 11 13 15 16 17 18 18 18 17 19 19 19 20 20 20 19 18 21
20 16 19 14 18 15 18 18 17 16 9 12 13 17 11 12 12 13 13 10 7 8 10 9 10 11 12 13 14 14 14 15 16 16 16 14 15 17 15 14 14 13 13 16
14 22 21 22 20 15 20 20 21 21 18 17 15 16 13 12 9 11 6 1 6 8 9 11 12 13 13 13 13 14 13 13 13 13 12 12 10 8 6 3 4 6 8 10
17 16 21 23 21 18 18 18 19 19 18 19 18 19 13 14 15 12 12 8 10 9 8 9 12 13 13 13 14 14 13 12 11 13 11 10 9 8 9 9 8 6 6 8
17 13 17 16 17 18 17 18 20 18 18 16 17 15 15 14 12 10 14 10 10 10 11 12 13 13 14 13 13 14 14 14 14 14 13 12 10 9 8 6 4 3 2 2
9 12 13 10 3 18 10 16 20 21 21 19 18 18 18 19 19 8 6 10 12 13 14 15 16 17 17 17 17 17 16 16 15 15 13 11 10 8 7 7 6 5 4 2
12 9 9 9 12 14 18 14 11 15 17 18 18 17 18 17 2 7 8 12 16 17 18 17 18 18 18 17 17 17 17 16 15 14 13 12 11 11 11 9 6 5 4 4
12 12 10 7 14 18 14 16 16 14 15 16 15 13 8 6 7 10 20 19 19 19 18 19 18 18 17 17 17 18 17 17 16 15 14 13 11 10 9 7 6 3 3 1
3 5 12 12 8 8 10 13 15 15 11 6 5 9 10 10 13 4 22 22 21 19 19 19 18 17 17 17 18 18 17 17 16 15 14 11 9 6 5 7 6 5 3 2
9 8 6 9 13 16 6 9 12 17 24 9 11 11 12 11 10 20 23 24 24 23 21 19 19 19 18 18 19 18 18 16 15 13 9 9 10 9 7 6 4 2 1 1
14 11 7 9 6 10 21 18 26 23 19 13 14 12 13 18 21 24 26 26 25 24 23 21 20 20 18 17 18 18 17 16 13 12 12 10 9 7 6 4 2 1 1 2
16 5 7 13 11 12 11 21 19 13 21 18 14 14 17 23 24 27 27 27 27 25 24 22 22 21 19 17 16 16 16 15 14 13 11 10 9 6 5 4 2 1 1 3
12 11 13 17 17 22 20 16 17 19 16 15 14 15 19 23 27 29 29 28 27 25 23 23 22 21 20 19 18 17 16 15 14 12 10 9 8 6 4 3 3 3 8 8
15 12 10 8 14 11 15 19 10 17 19 18 17 17 21 24 27 29 28 27 26 26 24 23 22 22 21 19 18 16 15 14 14 12 10 9 7 6 4 3 5 8 9 9

GFSCGP_850_spd_048.txt.gz
Wind_Speed
19 13 15 20 19 19 15 15 11 15 9 7 10 4 17 7 19 18 19 20 22 21 22 21 24 24 25 25 27 29 34 38 38 42 42 26 24 24 26 24 20 23 21 23
16 18 19 20 13 11 12 14 15 6 8 4 11 8 20 18 24 20 22 24 25 23 25 27 28 27 24 21 22 31 32 32 32 33 30 26 24 22 23 23 22 22 23 23
19 19 14 11 10 11 12 15 7 9 9 10 11 13 12 16 17 21 22 25 29 31 31 30 32 31 33 30 25 25 24 30 30 25 25 25 20 20 22 24 25 29 29 23
19 22 12 11 11 13 14 9 11 6 9 10 4 10 6 11 13 12 20 24 26 27 34 34 35 36 35 34 30 31 32 29 28 23 23 23 26 24 25 25 25 23 22 27
19 20 17 12 14 14 12 4 9 9 11 12 5 8 1 10 14 15 15 24 28 30 32 36 37 36 40 33 38 33 33 30 29 27 28 23 25 20 24 26 26 29 25 24
21 22 17 14 15 13 8 8 10 12 11 9 14 9 4 4 9 12 20 23 26 32 34 35 37 36 36 36 36 36 36 36 35 31 27 26 26 23 22 23 25 27 21 18
21 22 19 14 18 13 9 9 8 6 7 8 9 6 6 13 17 13 16 26 29 29 33 34 36 38 37 39 39 39 39 37 34 31 28 26 24 21 27 27 23 23 16 18
17 14 23 12 16 14 13 14 7 6 3 7 10 5 7 13 5 4 2 4 18 30 32 34 35 39 39 40 40 40 40 38 36 36 32 30 27 29 31 30 33 30 28 25
16 22 19 18 13 17 15 14 16 7 7 7 5 7 14 11 7 5 8 6 8 11 26 32 35 38 41 42 42 43 41 37 37 38 42 43 27 31 33 35 28 27 29 30
17 12 19 22 21 19 17 11 10 9 4 4 8 12 5 10 8 8 6 5 7 3 5 17 33 35 39 43 43 42 41 39 38 38 43 44 38 33 30 36 32 27 30 30
20 14 12 13 12 16 12 16 9 15 10 6 4 1 6 12 3 7 4 11 3 3 9 5 8 14 34 37 46 47 42 38 34 34 39 43 45 40 34 32 31 27 22 22
24 4 9 15 16 16 18 17 16 8 8 4 2 6 2 6 7 5 9 7 6 2 2 9 6 7 11 12 14 30 35 34 28 32 35 30 31 38 32 31 27 23 21 21
18 14 10 14 12 17 16 15 13 13 10 12 8 6 4 7 2 8 3 10 15 14 9 7 9 9 10 10 14 16 22 22 21 26 29 20 21 28 25 24 22 21 21 22
1 14 13 10 15 14 15 15 18 13 5 8 10 13 14 7 6 9 9 19 19 9 12 9 13 12 12 13 15 17 17 17 17 19 22 24 25 29 25 24 21 20 21 19
6 15 17 15 18 18 20 21 20 20 15 14 11 16 17 12 6 4 9 5 4 6 7 10 12 18 17 16 17 17 19 21 21 19 22 24 25 19 18 16 15 17 18 17
8 10 12 15 16 20 13 22 19 19 21 19 19 17 15 16 16 20 12 11 12 9 10 11 15 18 20 18 20 24 22 21 17 20 20 18 15 13 10 10 9 10 11 10
10 6 11 12 15 18 19 18 19 15 15 12 15 12 12 8 13 12 12 10 11 10 8 9 13 16 21 20 22 20 20 20 21 20 19 18 18 18 18 15 13 11 9 8
2 11 6 4 1 22 10 13 15 14 15 18 16 13 12 12 17 17 0 1 10 13 13 13 15 18 20 21 21 21 21 22 19 19 19 18 17 15 14 13 12 11 10 8
3 4 2 5 10 12 16 16 11 11 16 19 19 17 18 19 1 1 3 6 11 17 18 18 17 18 20 23 22 24 23 23 22 19 17 16 15 15 14 14 12 10 8 9
10 9 6 2 8 17 9 14 22 14 14 11 13 13 12 14 3 3 10 11 17 20 20 20 21 22 22 23 25 26 24 22 21 19 18 17 16 16 15 14 14 11 10 7
7 8 9 9 7 5 6 14 23 19 8 12 14 21 9 1 2 4 14 19 21 23 24 24 24 25 25 25 26 24 24 22 21 21 20 20 19 16 12 9 10 11 11 10
7 7 6 6 6 13 1 10 18 9 22 15 18 14 6 4 7 13 24 25 26 26 26 27 26 26 25 25 25 25 24 24 25 23 20 16 13 12 13 14 14 13 10 9
7 9 4 7 3 14 21 18 14 14 11 17 15 16 13 11 15 21 26 26 27 27 28 27 27 26 24 23 24 25 26 24 22 18 17 17 16 15 14 12 12 11 9 11
6 18 9 5 14 18 17 19 18 17 17 16 16 15 9 14 20 23 24 26 28 28 28 26 26 27 26 24 23 22 21 19 20 19 17 17 16 14 14 11 11 13 13 10
7 7 13 11 14 21 27 23 28 11 10 12 14 12 9 10 22 24 26 27 28 28 27 27 27 26 24 23 23 21 20 21 20 19 18 18 17 13 15 14 11 10 7 7
11 13 9 4 9 11 7 7 19 11 19 23 14 12 15 13 19 22 24 26 27 28 27 26 24 24 23 23 21 21 20 19 21 22 20 17 18 15 8 6 7 7 7 8

GFSCGP_850_spd_051.txt.gz
Wind_Speed
14 4 9 12 12 17 17 15 9 5 7 4 11 12 12 18 11 13 23 29 25 24 19 13 18 22 30 26 26 32 33 35 37 33 38 43 39 23 33 33 28 23 23 25
9 14 15 16 17 18 13 5 8 4 4 5 10 11 15 13 17 22 27 29 30 29 26 23 23 28 31 31 28 31 34 37 35 37 39 38 35 26 24 29 26 24 24 23
14 10 17 20 20 8 7 6 7 3 3 6 3 5 10 7 6 12 29 35 32 35 33 31 31 28 29 27 30 32 35 39 43 43 41 36 27 20 25 27 30 28 27 29
12 18 19 17 10 5 6 9 4 9 0 3 3 3 9 10 15 20 26 32 34 38 33 35 33 31 31 29 29 31 34 37 36 36 39 35 29 27 26 25 30 28 31 31
11 9 14 14 7 7 10 7 2 4 6 5 5 3 5 19 18 20 17 33 39 41 38 40 37 34 31 31 31 31 32 33 34 35 33 32 31 30 25 24 28 30 31 30
14 19 14 13 7 9 8 3 3 3 2 4 10 5 4 7 10 16 25 35 41 42 44 40 36 35 34 33 35 34 36 36 34 36 32 34 34 32 31 29 28 34 30 29
16 19 16 14 6 5 6 1 3 5 3 6 5 6 8 11 9 16 19 36 40 45 48 45 44 42 41 43 42 42 42 39 37 36 35 32 33 31 33 31 32 35 33 31
13 12 17 13 12 8 7 7 5 5 2 4 6 4 5 8 12 12 23 39 40 43 45 46 46 43 41 42 45 46 45 45 42 42 41 34 30 37 41 30 32 28 28 28
10 17 7 19 6 8 5 5 8 5 2 4 5 5 5 4 4 3 8 16 32 40 42 47 47 46 47 48 47 49 48 47 45 46 44 38 40 42 39 32 33 33 31 28
5 6 14 18 14 9 11 4 3 2 5 4 6 5 4 5 8 6 3 6 9 29 42 47 49 49 48 49 48 51 52 50 49 49 46 45 42 44 41 35 33 31 30 27
19 9 11 7 11 15 5 9 3 5 5 6 2 5 5 5 2 6 7 14 10 10 13 29 39 42 50 50 49 50 42 37 45 48 50 49 47 45 40 35 28 27 30 31
15 4 11 21 17 20 13 11 9 5 5 2 5 5 8 10 10 10 17 18 15 15 14 8 7 14 27 44 36 44 38 45 46 43 46 48 49 36 46 43 39 30 26 26
12 5 10 7 6 8 10 9 5 7 5 6 6 5 7 5 5 5 10 11 18 17 14 15 11 9 7 7 26 45 44 40 47 38 42 43 36 29 39 32 30 30 30 27
21 9 9 14 6 4 4 7 10 8 4 5 6 3 7 10 6 7 10 7 17 22 19 20 16 13 11 8 7 27 34 29 40 34 33 28 26 25 23 23 24 23 24 24
7 8 17 8 11 13 16 14 16 15 9 7 7 7 8 12 7 9 7 6 6 20 20 18 21 19 18 15 12 17 22 29 29 27 26 25 21 21 20 23 23 21 20 20
5 4 9 12 11 7 13 11 9 6 10 12 11 15 17 19 20 13 14 21 19 19 17 13 10 24 25 23 20 19 17 20 23 26 27 27 26 27 26 24 23 21 21 22
7 6 5 7 7 4 14 10 15 13 12 9 8 9 7 9 10 17 24 30 30 24 18 20 18 24 28 28 26 25 22 23 25 28 29 30 29 27 23 19 20 19 20 19
11 4 5 4 4 13 7 9 6 16 14 9 3 4 5 8 17 17 7 14 19 25 23 21 21 25 30 28 26 26 26 24 23 25 26 23 21 21 20 18 16 15 15 15
15 1 3 6 11 5 11 3 3 5 7 4 5 6 8 21 6 4 11 12 15 19 20 21 21 28 31 32 31 30 26 24 25 25 24 23 23 23 23 22 19 17 17 16
13 4 4 1 7 14 3 6 12 4 11 8 7 7 7 6 3 5 14 10 15 18 22 24 24 25 27 27 27 25 26 28 27 26 25 23 23 22 21 19 18 17 16 14
9 3 5 3 3 6 5 8 9 8 3 14 20 12 6 4 7 13 18 16 14 16 23 24 24 25 25 26 25 25 25 26 26 24 23 23 22 20 19 18 17 15 16 16
8 5 3 4 3 7 9 6 11 4 22 31 28 18 10 9 13 17 19 17 20 22 24 24 26 26 25 25 26 27 27 27 27 26 25 24 22 21 17 16 19 19 19 18
12 6 6 8 7 7 14 5 16 12 11 5 8 11 0 10 10 18 21 20 23 25 27 27 27 27 26 26 27 29 30 29 28 27 26 24 21 20 19 21 22 23 22 21
5 5 5 4 5 11 25 27 25 22 25 20 13 8 5 6 11 13 20 23 26 27 27 27 27 28 27 26 29 31 31 28 27 27 25 24 22 22 22 23 24 23 21 19
6 9 7 3 5 4 12 20 14 24 26 18 25 17 7 6 18 25 26 25 26 27 28 27 28 29 28 28 29 29 28 27 26 26 25 26 27 28 27 25 22 20 18 16
4 6 5 5 10 11 17 18 17 15 21 22 30 29 21 11 18 26 25 24 29 28 28 26 28 29 28 26 25 24 22 24 27 27 26 25 24 23 22 21 20 16 13 13

GFSCGP_850_spd_054.txt.gz
Wind_Speed
4 3 9 11 10 5 5 7 11 16 11 4 8 6 8 9 9 16 21 22 21 16 9 10 14 17 19 19 21 26 32 33 35 37 45 43 43 32 33 35 36 26 23 21
4 14 15 9 8 8 8 10 15 10 5 7 5 11 1 4 5 18 23 26 26 22 17 16 17 22 26 24 23 30 36 36 37 42 43 43 40 39 37 34 37 35 29 26
13 6 13 11 13 9 13 12 10 7 4 2 6 6 3 4 12 12 23 31 29 31 26 24 24 27 29 29 29 30 36 38 41 37 39 40 41 33 37 40 37 36 31 30
9 16 14 9 11 10 13 13 6 6 3 3 5 4 4 8 11 8 24 28 34 34 28 30 31 32 32 30 30 32 33 36 41 36 35 42 46 40 36 35 36 37 36 32
9 9 10 15 19 10 9 6 9 5 3 2 4 2 6 12 9 14 19 29 34 38 35 37 37 34 31 30 31 31 33 39 40 38 44 46 47 39 32 32 33 34 35 33
14 13 5 9 10 9 9 2 5 5 2 3 6 6 4 7 19 18 20 27 37 41 40 38 38 35 33 33 33 34 34 37 42 47 45 44 39 35 33 33 31 29 32 33
15 18 14 10 7 4 4 5 2 3 3 6 5 3 8 16 15 20 23 32 36 43 45 45 42 44 40 40 39 40 38 38 43 45 40 39 39 38 38 35 31 31 34 36
9 6 14 6 15 8 7 8 5 5 3 4 5 5 5 6 10 26 35 40 37 41 47 49 49 46 45 45 45 44 44 43 44 45 44 41 39 39 39 38 36 36 37 33
7 8 8 12 8 9 5 3 8 6 2 2 4 7 9 2 2 9 24 27 31 42 46 50 52 49 48 48 49 49 48 46 44 46 44 43 42 41 42 40 39 40 39 36
4 5 8 18 3 7 10 6 4 2 5 3 4 4 6 3 6 5 8 24 33 41 44 50 49 51 50 48 49 50 50 49 46 44 42 42 43 43 43 41 40 38 34 35
13 4 7 2 6 8 2 3 2 5 5 6 2 5 7 9 6 6 6 22 34 39 42 45 50 50 48 50 50 49 49 50 47 46 43 45 49 50 52 47 41 39 32 35
12 11 15 17 9 9 4 8 9 5 5 3 4 8 5 9 9 9 9 15 21 24 30 38 42 45 47 47 44 46 49 50 46 42 28 42 47 54 56 51 37 37 33 33
7 6 2 7 8 2 5 9 11 5 4 8 6 5 2 5 7 11 17 20 18 22 23 28 29 32 37 41 47 48 49 51 50 47 41 40 44 46 46 25 40 45 45 33
9 7 15 15 5 4 4 10 13 9 4 5 7 6 6 8 8 11 12 18 23 25 25 26 28 27 24 25 30 43 51 53 52 53 47 41 41 43 43 42 43 40 40 40
5 8 6 13 17 16 18 11 8 9 7 9 8 11 12 10 10 16 21 17 17 26 24 28 28 26 24 23 21 24 36 47 49 54 46 42 39 40 39 38 37 45 33 29
8 5 4 8 13 9 12 16 15 8 4 8 7 9 8 19 20 10 23 25 24 22 24 30 27 26 26 25 23 20 22 31 43 45 43 39 40 38 35 32 29 33 30 29
5 5 9 15 8 12 12 16 7 6 6 6 6 9 8 9 8 13 24 28 23 24 25 32 30 29 31 33 29 26 24 26 30 36 36 38 37 33 31 32 31 30 28 26
6 1 2 4 3 11 16 12 7 13 11 9 6 6 8 10 20 24 30 31 26 30 29 29 29 30 32 33 30 27 26 27 29 33 37 38 38 36 35 31 26 24 24 24
6 5 3 2 6 4 9 5 7 7 7 7 7 3 6 11 6 5 17 16 31 29 33 31 28 27 30 33 31 30 28 26 27 31 33 35 35 34 29 26 23 23 22 23
12 8 7 6 7 16 3 6 4 3 6 6 5 2 6 4 1 5 17 17 16 16 23 25 26 24 29 33 33 31 29 27 27 27 28 28 27 25 23 21 22 21 21 20
1 2 9 9 5 8 5 6 18 8 6 4 1 5 10 6 10 13 21 21 17 18 19 21 21 24 30 33 32 29 26 24 22 21 23 25 24 22 20 21 20 20 21 21
5 3 3 5 5 7 2 6 4 2 12 11 14 12 16 20 21 12 25 23 20 21 21 21 22 26 29 29 29 27 25 24 23 24 25 24 22 23 22 21 22 22 23 23
5 7 5 6 5 11 6 4 2 7 6 10 14 19 8 13 20 24 29 26 25 25 21 22 23 25 25 25 26 26 26 26 25 24 23 24 23 21 20 20 22 22 22 23
5 9 4 6 14 18 22 11 5 7 5 14 15 16 11 11 11 18 22 25 27 27 25 22 23 25 26 25 25 25 26 25 23 22 22 21 20 21 20 22 24 23 24 24
5 7 11 7 6 6 14 18 10 12 22 19 16 17 18 18 16 16 23 27 28 27 25 25 25 25 26 27 26 25 24 22 21 20 22 23 23 22 23 22 21 21 22 20
7 5 4 6 12 9 13 24 25 19 12 18 14 20 20 24 21 20 19 25 27 27 28 27 26 27 28 27 26 25 24 24 24 25 24 23 23 24 23 23 23 21 18 16

GFSCGP_850_spd_057.txt.gz
Wind_Speed
7 4 10 15 8 5 1 2 4 9 10 7 10 5 10 8 12 14 20 21 19 16 9 6 6 10 13 15 14 16 26 33 38 40 41 40 38 40 36 35 30 30 27 28
3 13 8 6 5 5 5 6 10 9 11 8 6 8 6 7 6 19 24 25 23 18 16 11 10 14 17 16 20 20 22 29 35 41 39 36 38 38 40 39 36 30 30 26
8 5 14 9 5 5 8 7 8 8 8 3 3 7 3 5 6 16 21 24 22 22 21 17 15 16 19 22 22 22 23 27 35 38 41 39 39 40 41 39 42 38 31 27
8 15 5 5 9 8 8 10 12 8 4 4 4 4 5 5 6 8 16 24 28 26 23 20 18 17 19 22 21 21 24 28 32 35 41 45 42 43 41 45 44 40 37 32
10 8 11 14 16 8 10 5 10 11 5 3 2 2 6 1 7 11 11 25 29 31 29 26 24 19 18 19 20 21 25 29 29 32 36 38 45 47 45 42 41 44 40 38
14 2 6 8 8 11 9 3 1 2 3 2 5 5 5 5 8 7 8 23 31 32 33 29 25 23 22 21 23 26 30 33 35 38 40 38 43 45 47 45 42 45 41 39
8 6 4 0 3 3 4 3 3 2 1 6 5 3 8 9 13 13 15 27 34 34 35 35 33 32 29 29 28 30 32 34 36 39 41 39 42 48 49 42 39 39 40 39
10 5 11 6 13 5 6 9 5 6 4 5 3 5 6 7 16 20 24 31 31 33 37 40 40 37 35 34 34 34 35 35 38 43 43 42 42 44 44 40 40 41 40 36
6 6 4 5 6 9 4 5 7 6 3 2 4 6 7 6 5 4 15 18 28 35 38 41 43 42 39 39 39 39 39 38 38 43 45 46 45 44 44 42 42 42 40 39
4 2 4 6 4 5 6 5 2 2 5 4 3 4 5 6 6 7 6 17 30 35 38 40 41 45 44 42 41 42 42 42 41 41 45 47 46 44 44 43 42 41 40 38
10 3 5 4 5 8 2 4 3 2 5 6 1 5 7 7 8 8 8 18 28 33 38 42 42 43 47 46 43 44 46 47 45 44 45 47 47 43 45 48 44 42 41 40
9 5 13 19 8 3 4 7 8 5 4 2 4 9 4 9 7 6 7 13 17 27 33 39 42 43 43 46 49 50 48 50 50 51 46 47 52 54 51 50 47 35 38 42
2 3 10 8 4 5 6 5 7 3 3 8 7 6 3 5 6 11 10 7 9 22 28 32 33 37 40 43 45 47 50 54 53 52 51 53 53 53 55 53 52 42 40 40
5 4 7 12 7 4 4 8 7 10 6 4 8 9 6 8 7 9 17 19 16 20 24 29 31 32 33 35 38 43 46 48 52 56 54 53 56 56 49 47 47 43 44 49
4 2 7 12 10 13 8 7 8 7 10 12 10 10 12 11 10 15 25 25 18 21 26 30 32 33 31 33 35 36 38 41 45 49 51 55 56 55 47 41 38 37 36 37
1 2 7 6 8 8 14 16 20 14 7 8 6 6 7 15 24 15 26 30 22 24 29 33 35 35 34 32 31 31 30 33 40 44 47 48 51 49 51 40 39 37 38 41
3 3 4 4 12 9 10 12 17 8 6 7 8 9 7 5 9 16 28 29 25 31 30 33 35 38 37 37 35 32 29 29 33 40 44 47 45 44 44 42 38 38 40 36
4 4 3 1 6 4 7 6 12 15 14 8 6 6 7 10 18 22 23 27 31 25 31 32 32 34 42 40 34 32 31 30 30 35 37 41 43 43 44 42 41 40 33 29
6 4 3 3 4 8 18 6 4 8 19 13 11 9 7 10 5 15 19 19 22 23 33 33 30 31 38 36 33 33 32 31 30 31 33 34 37 40 39 35 34 30 31 31
5 4 4 3 3 6 5 10 20 6 14 6 9 9 7 10 3 6 22 24 25 23 23 27 27 30 30 32 31 32 33 33 32 32 32 32 33 31 29 28 27 29 25 25
5 2 6 3 3 7 7 10 19 5 13 5 6 6 8 6 16 33 24 27 27 21 16 14 18 23 23 23 26 31 32 33 32 30 25 23 22 22 23 26 27 27 26 24
6 5 4 4 4 8 7 9 4 15 13 8 8 12 11 13 21 28 29 25 22 18 14 12 13 15 17 21 25 29 30 29 25 22 21 21 24 27 27 27 26 23 23 25
2 5 5 7 6 7 4 3 12 32 38 12 8 11 17 17 17 18 26 29 25 24 21 19 19 19 21 24 26 28 26 24 22 22 23 24 24 23 21 22 23 24 23 24
2 4 5 2 7 15 23 30 31 41 39 16 9 15 14 16 21 22 18 15 19 21 23 22 21 21 21 23 23 22 21 21 21 21 21 21 21 21 20 20 20 21 22 22
5 5 3 7 7 16 26 31 38 35 32 29 16 11 19 15 18 24 28 20 18 21 23 21 20 21 21 22 22 21 20 19 20 20 20 21 21 21 22 20 19 19 19 18
3 3 1 3 12 14 15 17 14 14 18 10 11 9 11 13 18 16 21 19 16 19 21 21 20 21 21 20 19 19 20 19 19 20 21 22 22 22 20 21 21 19 16 18

GFSCGP_850_spd_060.txt.gz
Wind_Speed
9 5 11 12 5 4 4 2 3 7 5 2 8 9 15 8 15 15 18 18 17 12 9 6 6 9 13 13 16 19 25 30 31 33 38 36 37 37 36 38 38 34 28 29
3 13 8 8 7 6 3 2 7 10 7 6 8 10 8 5 7 18 22 21 19 15 15 13 11 14 14 13 13 15 22 30 38 37 36 38 34 36 36 35 34 32 27 21
8 5 13 9 6 7 6 6 5 8 8 4 2 7 6 4 7 9 20 21 20 20 20 19 17 16 15 19 19 18 19 27 39 39 42 39 36 38 41 34 36 38 33 26
7 6 5 5 12 9 7 10 10 7 2 4 3 5 6 4 7 7 16 23 24 22 22 19 17 15 14 17 20 21 22 27 34 43 42 44 41 41 43 43 38 35 33 27
8 9 13 6 6 8 9 6 8 5 5 1 3 2 7 3 7 8 11 25 25 25 24 24 21 15 14 14 20 22 24 25 32 39 40 47 46 41 36 41 40 40 42 35
7 2 8 11 6 11 4 4 2 3 3 2 7 5 5 4 9 5 5 25 28 26 26 24 21 18 17 15 17 22 26 30 32 35 37 43 49 46 43 43 41 45 40 45
1 6 2 3 5 4 4 4 1 2 0 5 3 2 10 9 9 10 9 18 27 28 27 26 27 25 22 22 20 21 25 31 34 36 38 40 45 46 45 47 48 47 44 47
9 3 8 5 8 7 7 7 5 6 3 4 1 5 6 6 11 15 18 21 18 23 27 28 28 27 25 25 25 25 26 28 33 35 37 38 40 41 45 47 50 50 50 47
6 5 3 5 6 12 5 4 6 6 2 2 4 6 9 8 9 4 5 8 17 20 25 29 29 30 29 28 29 29 29 28 31 33 35 39 40 41 42 44 44 46 48 46
6 1 4 3 4 3 7 7 3 1 5 4 3 3 5 8 9 9 5 9 15 19 22 26 29 29 31 32 30 30 31 30 30 31 35 37 39 41 41 41 46 45 44 42
3 3 4 3 4 7 3 3 2 4 4 5 3 5 7 10 7 8 9 14 15 18 22 24 28 29 29 32 35 35 35 34 35 35 34 35 38 38 39 41 42 44 44 43
5 3 5 10 6 2 4 7 9 4 4 3 3 8 4 9 6 7 12 14 11 13 20 21 24 28 31 33 35 38 38 38 38 37 38 40 41 42 41 44 45 47 46 45
4 2 2 7 4 3 4 6 5 2 3 7 6 5 3 7 6 10 12 16 10 8 14 20 23 25 28 32 33 36 39 41 41 41 42 44 43 42 50 52 53 51 50 46
1 1 1 2 2 2 3 7 10 8 4 3 5 5 5 7 8 8 14 17 19 15 15 19 23 26 27 28 28 31 32 35 43 47 46 47 46 47 48 51 47 47 48 49
2 2 2 4 4 6 12 9 6 9 6 8 5 8 9 12 11 16 24 21 22 21 19 20 23 25 26 28 29 30 31 30 34 39 46 50 52 48 49 52 53 49 45 41
4 1 1 3 10 12 6 9 10 8 5 6 7 8 10 16 18 14 28 29 28 26 22 24 28 29 30 30 30 30 30 33 32 32 34 36 42 47 54 55 53 50 47 44
4 2 2 1 5 11 4 3 6 9 10 7 12 8 9 6 8 14 25 27 28 34 33 27 29 30 33 36 34 33 32 34 33 31 32 34 36 37 39 44 50 51 48 47
6 3 2 2 3 2 5 11 7 7 11 7 6 5 7 10 22 18 17 16 22 24 28 35 35 34 34 38 39 37 38 34 33 33 32 32 33 35 35 35 38 40 40 42
11 4 4 3 3 4 9 2 4 3 9 6 8 12 12 26 10 10 9 2 7 15 22 24 28 32 29 33 38 43 38 35 34 34 32 30 31 32 32 33 35 35 32 32
6 1 3 2 3 4 4 3 9 5 11 10 15 12 13 6 4 6 20 19 10 13 22 22 22 27 31 30 31 40 38 35 32 31 29 28 28 28 29 29 31 30 30 29
4 3 9 4 5 6 5 5 4 0 7 12 19 24 17 5 8 21 25 23 21 22 22 23 23 24 25 26 25 28 34 31 30 28 26 25 22 20 18 18 20 22 23 25
5 5 3 3 1 9 6 2 3 4 9 12 23 23 24 31 28 26 25 23 23 23 21 17 9 11 13 15 17 20 22 23 22 21 19 16 14 13 13 16 20 23 27 28
2 6 5 7 7 4 5 7 15 10 7 15 17 34 27 29 26 26 29 32 22 22 21 20 14 14 12 11 11 11 14 16 16 14 14 15 14 15 17 19 23 25 23 20
3 4 3 1 3 5 13 16 20 21 29 29 21 25 27 36 31 20 23 26 28 18 12 10 11 9 8 8 10 12 12 13 13 13 14 15 16 15 15 16 16 16 17 17
5 4 4 5 4 12 0 21 22 27 25 23 30 32 27 28 27 25 20 21 17 22 16 10 4 7 3 11 12 8 9 11 13 14 15 16 16 17 16 14 11 9 9 8
2 1 2 4 2 4 8 17 14 20 23 18 13 8 6 11 17 17 15 11 14 16 19 15 8 7 4 9 10 10 11 12 13 15 16 16 16 16 16 16 16 15 14 14

GFSCGP_850_spd_063.txt.gz
Wind_Speed
7 8 15 19 14 5 7 5 4 5 5 3 6 13 18 8 12 14 15 16 17 17 12 10 8 8 12 14 20 21 26 29 28 39 34 41 44 42 37 40 38 36 38 34
5 19 14 8 8 11 6 6 9 10 2 8 10 14 15 5 6 12 17 17 17 17 17 14 11 10 15 19 20 24 26 23 28 37 33 39 43 42 36 39 40 38 37 34
19 5 15 14 8 11 11 13 7 10 6 3 5 5 6 2 4 7 13 15 16 21 20 17 14 15 19 20 22 24 24 26 29 31 39 40 34 32 37 39 37 45 41 38
14 8 13 12 16 14 15 12 8 7 4 4 3 7 6 7 7 7 13 17 18 21 22 18 18 17 20 22 20 20 22 25 30 34 35 43 41 43 41 41 44 44 40 37
9 10 12 13 11 14 11 9 11 7 6 3 2 4 4 2 7 10 10 19 23 25 26 25 20 15 14 20 23 23 22 24 31 36 38 42 46 42 42 40 38 39 38 36
9 4 10 19 7 18 8 5 4 3 2 5 7 5 5 3 6 4 6 9 18 25 27 25 21 18 16 17 22 24 26 27 30 38 41 43 47 44 43 42 45 41 40 42
6 8 2 5 6 7 5 8 3 4 5 5 3 6 13 9 13 10 12 15 12 22 27 28 29 27 24 23 24 28 28 31 32 36 40 44 45 45 43 44 48 45 43 41
10 6 11 5 6 9 18 13 6 8 6 4 2 6 5 9 8 10 15 16 12 19 29 31 31 30 27 25 26 25 26 31 34 38 41 44 45 48 47 47 53 48 47 48
9 9 3 5 5 8 6 10 6 5 2 1 4 5 8 8 9 4 10 6 8 17 24 31 31 31 30 28 27 26 26 27 31 34 37 41 43 46 50 50 46 48 47 48
6 3 5 11 3 3 5 9 5 0 7 8 3 4 6 7 10 8 9 6 6 10 17 24 31 31 31 30 27 26 26 26 25 30 34 36 39 42 46 53 54 52 52 52
3 0 1 6 7 12 7 8 2 4 3 8 6 5 7 11 8 7 7 12 5 9 16 19 24 29 30 31 31 31 31 30 31 30 31 34 37 39 41 44 45 47 47 49
3 2 3 4 2 4 4 8 10 5 5 1 1 8 3 9 7 7 12 12 9 8 9 14 18 22 27 31 34 36 36 35 33 32 32 33 35 39 42 42 41 43 43 43
5 3 2 4 3 3 5 5 4 2 1 12 7 4 2 5 10 10 12 11 9 8 5 8 13 18 22 27 30 33 36 37 38 36 36 38 39 40 40 42 44 45 44 43
3 2 1 4 3 3 2 3 9 11 4 5 6 7 5 6 9 14 14 17 12 13 11 9 11 17 20 23 24 26 29 33 38 41 42 42 43 43 43 41 43 47 47 44
5 2 4 5 4 3 3 8 9 9 11 10 9 9 10 7 9 16 17 26 22 18 17 16 18 17 22 23 23 21 23 25 29 36 41 44 45 45 43 43 45 47 45 45
8 1 1 2 4 2 6 8 6 6 4 7 10 10 9 16 13 14 23 25 25 32 31 28 21 21 21 24 26 25 28 28 29 30 31 33 37 39 43 45 46 47 48 46
4 1 1 2 4 5 1 2 1 1 1 3 4 10 13 12 10 12 22 23 26 25 26 26 24 24 24 23 26 30 31 34 33 31 31 32 31 32 32 33 37 43 46 46
5 2 2 1 4 2 2 1 4 3 1 4 2 9 12 15 22 22 21 20 27 27 25 23 19 22 28 31 29 33 34 35 36 36 33 33 31 30 29 29 29 30 34 36
12 4 2 2 5 4 8 2 3 3 3 9 7 10 12 24 11 11 22 21 24 25 16 15 16 18 22 28 31 32 32 36 37 36 35 32 29 27 27 27 27 28 27 28
11 9 3 3 3 6 4 2 3 6 2 3 7 9 11 18 7 6 29 25 24 23 23 33 23 17 17 19 23 27 29 32 38 35 34 29 26 26 25 23 20 19 23 25
5 4 10 2 4 4 5 4 5 3 3 12 5 9 9 7 7 22 25 29 29 22 20 19 19 23 15 16 19 23 26 27 30 30 25 23 22 21 20 16 16 17 18 23
6 7 4 4 4 5 2 2 3 7 10 12 16 14 17 24 23 23 23 24 27 35 27 16 13 16 17 8 11 10 13 17 19 20 19 18 17 15 12 12 11 14 16 20
2 4 3 6 4 1 2 2 5 8 10 11 18 30 26 29 31 30 28 24 27 28 25 18 12 10 9 7 5 7 9 11 12 13 13 14 14 12 11 10 11 16 18 21
2 3 2 0 0 3 2 4 12 16 15 19 20 25 26 27 28 27 20 16 16 17 24 26 16 9 4 3 3 2 3 5 7 9 12 11 8 9 9 9 10 13 16 17
2 2 2 3 4 7 8 11 16 17 20 21 20 19 16 16 13 13 11 8 5 5 12 15 21 16 10 7 4 9 6 5 6 7 7 6 8 9 10 11 12 12 13 11
1 2 2 2 5 5 9 16 16 13 16 18 20 19 17 15 12 6 6 3 2 6 4 8 13 15 15 8 5 5 6 7 7 5 9 10 11 11 12 15 17 17 13 12

GFSCGP_850_spd_066.txt.gz
Wind_Speed
24 15 22 25 23 19 13 14 15 7 4 5 14 15 13 7 9 12 14 15 16 15 12 11 9 10 15 16 21 20 20 22 28 32 33 35 36 35 47 39 38 40 41 41
13 22 21 17 19 19 17 16 14 8 5 11 15 15 14 11 8 10 13 15 17 16 16 15 13 12 17 18 22 22 21 19 30 31 34 32 40 35 41 40 37 38 38 35
24 7 20 16 17 19 21 19 16 13 3 11 11 16 18 12 7 8 10 12 17 19 20 18 17 15 19 23 23 25 22 23 29 28 33 33 38 36 36 43 41 42 36 36
17 25 8 20 24 19 20 20 17 14 8 9 3 13 14 9 16 10 10 14 17 21 20 20 19 19 20 24 24 25 28 27 26 28 37 35 46 49 34 40 45 51 39 34
13 12 22 18 21 19 20 10 12 16 11 11 15 9 14 5 12 11 10 13 16 21 22 23 22 20 20 21 25 25 28 30 29 28 38 39 44 47 31 34 42 46 41 35
25 5 14 22 14 16 7 7 8 9 10 12 13 11 9 3 4 2 4 3 11 20 24 23 22 20 20 21 23 24 24 27 32 31 35 38 36 41 33 37 40 42 45 41
25 21 12 15 21 15 15 12 6 8 8 11 7 9 15 5 8 10 7 7 7 19 25 26 27 26 24 24 23 24 26 26 30 33 38 40 41 45 43 44 45 43 46 43
15 14 20 13 16 14 24 21 7 10 10 8 9 7 4 4 2 5 10 10 7 17 24 28 28 27 26 27 26 26 26 27 29 35 38 37 41 45 43 45 41 42 46 49
18 18 13 13 12 15 16 17 14 6 2 4 9 8 9 11 10 5 8 4 5 15 21 25 27 27 27 28 29 29 27 27 29 32 38 39 39 41 38 40 44 46 46 46
5 11 16 21 12 16 11 12 11 10 13 10 7 10 6 8 5 3 3 10 1 9 18 22 26 26 26 26 27 27 27 28 29 30 33 36 39 38 39 37 40 47 46 47
9 8 6 13 16 19 13 10 9 8 13 11 7 5 6 11 5 0 7 10 3 5 14 19 23 25 25 25 28 29 30 29 30 31 32 34 39 40 44 42 43 44 44 46
14 5 6 16 5 16 18 20 18 9 11 8 10 10 6 5 5 4 8 9 5 3 8 14 20 24 27 28 29 31 31 31 32 32 32 34 34 36 41 45 46 48 56 49
4 7 10 9 7 4 11 12 12 17 13 12 9 3 1 2 9 7 8 14 8 3 5 10 16 22 26 28 30 32 35 36 33 33 34 35 37 39 43 45 44 44 44 45
11 5 11 9 5 1 7 10 13 12 11 13 15 16 13 9 12 14 13 12 10 9 7 7 12 18 21 25 28 31 32 34 35 35 35 36 38 41 41 41 41 43 45 45
8 0 1 2 0 1 1 3 9 13 13 13 10 11 11 11 9 11 18 16 14 16 15 13 13 13 16 22 25 28 29 31 33 34 37 41 41 39 38 39 39 41 43 44
5 3 4 1 1 5 7 7 6 10 9 7 8 10 8 12 16 15 19 19 21 18 17 17 19 19 18 20 23 25 28 31 31 34 36 36 37 38 41 41 41 40 41 42
3 2 3 2 2 4 7 13 5 5 4 4 5 4 7 8 10 15 18 12 20 20 20 18 16 16 17 20 23 25 27 27 31 33 34 34 33 34 35 35 36 39 40 39
4 2 4 2 6 3 3 4 0 7 8 6 6 6 7 11 15 10 14 14 17 21 20 19 12 10 13 18 20 25 22 27 31 35 33 33 33 33 30 29 30 30 30 32
13 5 3 4 6 7 5 4 2 2 5 6 6 7 9 14 11 5 17 21 20 20 18 17 18 18 19 20 20 20 22 26 27 34 36 34 31 31 30 30 28 25 25 27
12 11 6 2 4 6 3 6 2 2 4 7 6 9 10 14 7 5 20 21 22 24 23 22 21 20 20 18 18 18 19 22 28 27 26 26 28 29 29 27 27 29 26 25
8 8 12 9 6 4 2 1 1 6 2 11 11 12 13 9 11 20 18 19 19 20 22 24 17 15 18 20 18 15 14 17 19 21 23 22 23 24 23 27 28 24 21 20
8 9 7 10 7 6 5 2 4 7 7 12 14 16 17 19 22 19 20 19 18 18 17 21 19 16 14 15 12 10 7 14 16 18 20 22 23 26 25 24 21 19 20 23
4 3 3 7 7 5 7 6 6 7 6 10 13 15 17 19 20 18 16 16 13 11 14 14 17 16 15 13 5 5 4 6 8 10 13 15 17 17 18 19 19 19 19 21
5 2 2 1 3 2 4 4 11 12 10 10 12 15 16 18 17 16 14 12 10 10 13 13 12 17 17 15 11 4 4 4 4 6 10 13 15 17 16 16 16 16 17 18
3 1 2 4 5 4 5 9 12 14 12 14 14 15 16 17 16 14 10 11 9 8 8 11 13 14 17 17 14 8 2 3 7 10 11 12 11 11 12 12 11 11 11 10
2 3 4 4 5 4 5 12 14 14 16 15 15 15 15 15 14 11 8 10 10 10 7 9 11 9 11 11 11 13 11 4 4 10 12 14 15 15 15 15 14 14 11 11

GFSCGP_850_spd_069.txt.gz
Wind_Speed
25 17 22 25 24 22 22 18 16 11 12 10 15 17 15 14 15 12 14 14 14 14 12 13 12 11 11 16 17 18 20 13 13 17 25 27 32 36 37 42 39 38 30 37
22 25 23 23 23 25 25 23 18 17 6 8 15 17 18 16 15 13 16 14 13 15 16 15 13 12 12 16 17 20 21 22 19 21 26 25 31 37 39 42 42 30 28 31
24 22 23 22 22 26 23 23 20 19 7 10 15 18 18 16 20 10 12 14 13 16 19 18 17 15 14 20 22 24 22 19 21 24 25 27 28 35 40 46 40 34 30 33
18 29 11 22 27 22 22 20 20 18 14 13 13 14 14 17 20 17 19 17 15 16 20 21 20 19 18 22 25 24 26 21 24 28 27 31 31 34 44 50 44 35 36 40
9 17 20 23 24 23 21 17 16 18 16 16 18 10 14 14 14 10 13 19 17 17 21 23 22 20 19 22 27 26 28 28 26 28 28 37 35 30 35 48 45 37 36 36
23 33 16 19 23 17 17 18 17 11 14 15 18 15 11 10 7 2 7 8 17 18 21 22 21 20 19 20 23 25 27 30 31 33 28 31 36 32 39 40 41 46 44 42
19 23 23 27 18 21 25 14 9 11 13 14 16 12 14 6 8 5 7 11 13 18 23 24 25 24 23 24 23 24 27 28 35 35 32 30 36 38 46 41 38 45 50 49
9 13 20 17 19 18 20 21 12 11 11 13 17 7 8 5 3 6 5 8 7 16 24 26 27 26 24 24 25 24 25 26 28 36 38 33 35 34 39 41 34 45 56 55
8 12 16 20 13 17 21 21 20 14 6 9 9 10 3 7 8 8 7 4 7 15 24 26 27 27 25 25 25 25 24 24 26 28 38 38 35 37 40 40 44 39 48 49
16 18 13 18 16 18 20 15 20 15 9 8 9 15 6 6 9 8 6 5 1 9 20 25 28 27 26 25 25 25 24 24 25 25 29 37 39 39 34 35 42 45 43 48
22 17 8 22 15 21 17 18 14 14 13 8 7 5 1 11 7 4 6 5 3 5 13 22 25 27 26 25 26 26 26 26 27 27 27 31 36 37 39 37 39 37 41 49
15 6 13 15 25 23 21 19 17 10 16 15 10 5 1 4 5 3 5 1 6 2 9 16 21 25 27 28 27 29 28 29 29 28 29 30 32 35 39 40 40 39 39 40
9 9 13 6 9 18 24 23 20 14 10 9 8 7 13 6 3 7 4 5 4 4 4 9 16 22 26 28 28 29 30 31 29 30 31 32 34 35 40 43 42 40 41 40
15 11 13 13 7 12 17 18 19 18 12 15 14 11 11 5 5 7 15 11 9 3 4 4 9 15 20 25 28 29 30 30 31 32 33 35 39 41 42 41 40 44 44 44
10 6 10 15 8 5 8 10 14 16 15 13 13 15 14 6 5 6 7 12 14 13 7 9 10 12 16 20 25 28 29 30 31 33 34 39 41 39 35 39 41 43 44 47
6 3 10 13 10 5 8 10 11 13 10 10 13 11 7 7 6 6 12 14 12 15 12 11 15 13 17 18 21 24 28 33 31 36 42 37 37 38 40 41 42 42 44 46
4 3 6 2 1 4 8 12 8 10 14 13 11 5 2 2 7 7 10 12 17 16 14 15 14 13 11 12 14 21 25 25 33 38 36 37 39 40 42 41 41 43 45 44
5 7 3 4 6 5 5 2 16 11 3 4 10 4 5 6 6 8 11 13 13 15 17 15 14 13 12 12 10 14 18 23 28 32 34 36 38 41 40 39 42 42 42 44
14 6 3 2 3 6 9 3 4 13 8 6 4 4 7 9 7 11 12 15 15 16 18 18 17 15 14 13 12 11 12 19 24 29 35 34 37 38 39 41 43 42 41 41
16 12 7 6 3 4 4 12 7 9 5 7 6 6 9 13 6 6 21 16 17 18 19 21 20 15 14 14 15 15 12 13 19 25 28 27 31 34 35 37 37 37 35 34
12 11 13 9 5 4 10 3 1 10 4 7 8 11 12 10 12 20 21 17 15 14 15 17 18 17 18 20 15 13 9 7 10 17 21 22 25 28 30 29 29 29 32 36
11 9 7 10 9 11 5 3 4 6 8 9 10 11 12 13 17 20 19 16 15 13 13 14 15 17 21 21 16 10 12 11 12 16 20 23 22 26 28 30 34 34 34 33
6 7 5 9 7 8 13 17 11 9 9 11 12 13 14 16 18 19 20 15 13 13 13 14 12 12 15 17 18 18 17 13 7 7 10 17 21 23 26 29 30 27 27 27
8 4 1 4 9 7 12 13 12 11 11 12 12 12 14 15 15 15 14 14 13 13 14 13 12 12 11 12 13 15 17 17 11 6 4 7 12 18 21 21 21 23 25 22
5 1 5 4 7 9 12 13 11 11 12 13 13 12 12 12 13 15 13 14 14 13 13 14 14 13 13 12 11 14 18 22 20 12 5 1 5 7 9 11 10 10 13 14
4 3 3 2 8 8 9 10 11 13 14 13 12 12 12 14 14 14 12 13 13 13 13 12 12 12 12 10 10 10 11 12 17 19 18 14 3 8 9 9 9 8 6 6

GFSCGP_850_spd_072.txt.gz
Wind_Speed
9 12 18 23 21 22 20 22 23 21 20 18 18 16 16 17 19 16 17 16 17 20 15 16 17 16 15 13 15 13 17 11 13 15 16 22 21 27 40 37 40 38 36 35
9 21 19 21 21 22 22 24 25 23 12 8 11 13 15 16 15 17 21 19 19 21 19 18 17 18 15 17 19 15 20 14 13 16 20 21 21 30 36 42 36 39 37 39
19 16 17 22 28 24 22 23 22 24 20 18 9 16 17 20 19 22 19 15 18 24 24 23 20 19 17 16 21 21 24 19 14 18 19 22 26 32 42 39 43 41 38 39
8 15 18 18 29 23 22 21 25 24 18 14 15 13 16 19 18 16 19 18 15 15 26 25 23 21 19 16 21 20 21 20 20 22 25 26 30 35 39 48 42 40 40 37
5 10 21 24 25 21 23 15 23 21 18 17 19 11 13 13 14 17 18 22 23 19 27 26 25 23 18 19 24 25 24 23 21 28 24 27 28 31 39 49 46 46 39 39
15 15 9 13 22 20 17 18 23 21 15 16 18 16 14 14 13 15 13 13 24 21 26 25 25 23 21 20 25 27 24 26 23 30 28 28 28 33 40 43 53 45 41 39
14 25 18 20 20 16 22 10 8 8 13 12 15 13 14 16 6 7 4 6 18 21 25 26 27 27 25 24 23 26 28 30 28 29 33 31 34 33 36 43 55 52 44 43
5 4 18 11 19 11 17 20 9 7 8 12 18 10 18 18 13 12 5 8 16 17 24 28 28 29 28 26 22 25 26 28 31 33 33 35 31 36 33 36 46 56 53 48
4 5 6 17 10 8 12 19 25 13 9 6 9 17 3 6 6 8 10 13 14 15 25 26 28 29 28 30 27 24 24 27 29 36 35 35 29 32 40 39 41 49 51 54
4 8 12 17 15 19 22 19 15 10 7 6 5 16 8 15 12 11 5 4 2 9 23 25 27 29 28 29 29 28 25 25 24 26 36 40 36 37 39 37 42 38 46 52
7 7 3 7 7 18 11 15 14 12 13 6 4 6 8 11 7 11 9 9 5 3 13 26 26 28 26 26 28 29 30 27 28 25 25 34 43 39 36 35 37 46 40 39
5 5 9 19 16 20 17 20 18 9 19 12 6 1 8 5 6 9 7 8 10 3 6 19 23 26 28 27 28 29 29 29 30 30 25 24 31 41 40 41 44 43 42 48
6 5 6 9 10 16 16 19 19 12 10 8 4 5 4 7 6 4 3 11 4 8 9 13 17 22 26 26 27 28 29 29 30 30 30 28 27 33 41 44 44 44 40 40
5 6 9 10 9 8 14 22 22 17 4 7 7 7 5 9 2 0 1 11 17 10 5 4 12 16 20 24 27 27 29 29 29 33 34 35 35 34 35 39 41 44 43 42
3 5 8 13 16 16 14 16 21 22 19 15 11 16 12 15 14 6 14 11 9 14 22 13 11 1 15 19 23 27 29 31 32 33 35 38 38 37 36 36 40 41 43 46
3 4 11 10 15 15 16 12 14 11 15 15 11 6 8 6 10 16 21 22 20 20 22 19 18 19 18 7 21 25 29 30 32 35 38 35 36 37 41 41 41 42 45 46
3 1 4 4 13 7 9 12 10 10 10 8 9 4 7 4 6 16 19 18 18 18 18 18 20 17 19 19 16 14 21 27 31 35 36 37 37 38 40 41 42 46 48 47
7 5 2 4 10 4 9 12 12 4 8 8 7 4 6 5 18 19 17 16 15 14 16 16 19 19 15 14 11 12 7 9 27 30 34 35 35 38 37 37 42 44 44 46
12 6 2 3 4 6 4 2 9 12 5 5 3 10 4 7 18 17 20 13 11 13 13 15 14 12 12 13 13 13 14 14 12 13 25 31 32 35 36 39 42 42 41 41
16 11 6 4 4 1 3 6 17 9 3 6 6 14 15 14 7 9 21 16 11 11 13 16 11 13 16 19 14 9 7 7 9 11 12 7 28 33 35 37 39 39 39 41
14 12 11 7 4 5 6 14 21 2 3 6 12 17 16 10 11 16 17 17 18 18 16 18 17 16 16 16 13 12 13 13 15 14 15 14 12 18 31 33 34 34 36 37
12 10 7 9 7 6 4 8 2 8 10 9 17 18 16 15 16 17 16 19 19 21 21 20 17 19 19 18 16 17 18 18 19 18 16 18 18 15 17 19 26 31 34 38
8 8 5 8 6 13 22 20 18 19 17 16 14 14 13 13 14 16 17 18 18 18 19 17 16 15 17 19 18 16 17 20 21 18 15 15 14 15 14 9 15 18 23 27
3 8 1 3 11 15 21 21 20 18 16 13 12 12 13 13 15 16 16 16 16 17 17 17 16 16 17 16 15 14 13 15 18 23 24 27 23 14 8 8 6 10 16 20
1 4 6 8 10 18 19 21 15 15 14 13 12 13 16 15 15 14 13 15 14 14 14 14 14 14 15 15 14 15 14 12 11 11 13 18 21 20 16 11 10 11 7 9
9 8 5 4 11 13 17 17 13 13 13 13 12 13 13 13 12 12 11 12 12 12 12 12 13 13 14 14 13 13 12 11 10 10 11 11 10 11 12 12 10 15 21 13

GFSCGP_850_spd_075.txt.gz
Wind_Speed
12 5 8 8 10 14 13 15 19 18 17 16 21 21 19 11 13 14 24 24 21 33 28 27 26 22 18 13 16 16 16 14 11 13 18 23 27 42 39 41 43 37 38 35
4 6 7 11 15 14 13 18 23 23 20 16 14 25 10 9 8 19 26 31 28 34 30 32 29 25 19 14 18 19 20 16 17 20 16 24 28 34 35 34 39 39 40 41
10 7 5 12 18 15 14 17 19 19 20 24 18 17 5 6 7 20 22 37 32 41 38 36 32 26 19 16 21 21 26 19 18 18 23 21 21 31 35 36 42 40 43 43
3 4 10 15 17 14 11 11 23 17 12 9 19 13 7 10 16 15 18 29 33 39 41 38 33 27 20 16 21 23 26 23 19 18 21 26 25 28 33 37 38 43 48 42
6 4 5 14 17 16 9 15 22 7 9 13 22 12 8 9 10 13 16 26 33 44 44 40 34 26 18 16 21 26 25 27 21 23 23 25 26 25 30 39 41 47 44 42
11 14 5 2 11 8 8 15 6 7 4 8 18 14 8 10 9 9 16 27 35 40 43 38 31 24 20 18 23 24 27 27 26 27 26 25 25 30 33 44 42 45 40 41
6 13 12 8 7 8 9 9 1 3 4 6 9 14 14 9 17 13 4 20 34 37 41 38 34 30 24 23 25 30 29 27 28 28 29 26 25 27 33 37 44 47 45 39
2 5 5 11 11 5 12 6 4 5 3 3 13 7 12 13 18 15 11 19 33 36 41 40 38 32 26 25 25 29 31 31 33 30 32 28 27 27 31 36 42 49 48 47
3 3 2 5 9 14 5 8 5 8 5 4 4 6 12 14 19 7 9 13 28 37 41 40 38 33 26 25 26 25 30 31 33 32 32 32 30 30 30 33 39 45 49 52
0 5 5 1 11 11 8 4 3 3 3 3 6 7 6 6 8 8 6 6 14 34 40 40 38 33 27 23 23 22 23 27 29 31 32 34 35 35 33 31 33 39 44 54
5 2 1 3 6 6 7 4 6 2 4 3 3 4 4 5 5 9 9 14 13 23 37 38 37 34 28 24 24 23 23 23 24 26 32 35 35 37 33 39 38 38 38 50
1 3 5 11 11 14 13 11 11 4 4 5 4 6 15 4 8 9 8 16 9 9 26 37 35 35 32 27 25 23 22 23 24 22 23 28 38 37 39 39 42 40 40 41
3 3 4 6 5 9 4 12 15 9 4 6 2 4 11 5 7 14 17 20 20 8 11 30 29 32 31 29 27 26 23 23 24 24 24 25 26 36 45 44 43 42 41 44
1 4 6 6 11 3 4 8 16 17 3 5 10 5 6 16 14 16 19 24 29 31 34 14 17 27 30 29 27 26 25 23 22 29 29 29 30 28 34 41 44 43 43 44
3 4 6 11 14 11 12 14 15 22 17 5 6 7 6 7 18 12 19 25 28 29 31 31 28 27 2 23 28 27 25 25 24 25 31 33 32 30 29 31 37 42 45 46
4 3 3 8 9 7 15 17 15 17 20 17 18 18 2 6 6 9 19 24 25 25 25 28 27 23 24 19 8 4 22 30 27 28 28 30 34 34 34 32 33 35 40 45
3 2 3 3 7 12 8 7 12 10 9 14 10 7 5 7 7 11 17 23 22 23 21 21 22 22 20 18 17 14 8 3 28 33 31 31 31 34 36 36 36 37 38 39
5 4 1 4 6 4 4 3 3 8 5 5 5 2 9 16 18 23 22 20 20 22 21 19 20 20 22 17 12 10 7 4 3 17 26 28 32 37 37 37 39 41 41 41
11 4 1 2 5 9 4 6 3 6 8 12 13 6 11 14 19 24 33 27 29 26 21 19 18 19 17 17 18 16 11 8 7 6 1 8 14 31 38 39 39 40 42 44
9 7 4 2 4 3 4 7 5 3 4 8 15 7 7 17 10 6 25 29 32 31 21 18 15 14 14 17 17 16 17 16 15 14 16 12 10 9 19 36 39 42 45 44
10 8 10 4 2 7 4 7 3 4 4 10 16 14 17 15 11 17 25 26 20 21 22 15 15 18 16 15 15 18 18 19 19 18 20 20 15 15 10 14 28 33 36 40
9 7 5 3 4 6 15 8 3 10 15 20 20 20 20 20 20 20 19 17 15 16 15 14 15 16 15 15 15 16 16 17 16 15 16 19 20 18 17 15 11 18 18 26
4 6 5 6 3 12 22 21 23 23 23 22 23 20 18 19 19 14 15 15 15 15 15 14 14 14 14 14 14 12 13 13 14 14 15 17 20 21 19 18 15 12 12 9
4 9 2 5 10 15 25 27 28 25 24 22 20 19 19 19 14 13 14 15 16 17 16 15 14 15 15 15 14 13 13 11 11 12 13 14 15 16 17 16 14 14 14 11
4 5 5 4 2 21 25 26 23 21 20 19 14 14 16 14 14 10 12 13 13 13 13 15 15 15 16 14 13 13 12 12 11 13 12 12 13 15 16 17 18 18 15 11
9 7 1 2 14 17 12 20 17 19 17 12 13 13 14 11 11 8 11 11 12 13 13 14 14 15 18 16 14 13 12 10 8 7 8 9 10 12 15 19 21 24 23 21

GFSCGP_850_spd_078.txt.gz
Wind_Speed
4 2 7 7 8 6 8 12 14 11 11 6 17 19 18 21 19 22 27 29 33 44 38 34 31 25 22 19 15 11 15 15 14 20 16 22 25 35 47 45 47 46 43 40
2 6 10 8 6 8 12 15 17 12 12 13 15 20 18 21 14 25 30 30 36 31 36 37 33 28 26 21 14 12 17 15 13 17 21 29 33 34 33 42 46 43 45 43
8 5 5 5 4 9 13 12 8 8 15 21 16 20 9 17 20 19 28 33 31 41 42 39 37 34 28 23 16 13 19 17 15 17 23 22 22 35 44 50 49 48 45 39
5 3 1 2 5 9 14 8 8 10 12 9 3 7 12 15 19 14 9 20 27 39 45 44 42 37 31 24 17 17 23 21 19 19 18 20 27 33 37 43 43 44 41 39
5 2 2 4 6 8 11 7 8 8 10 5 10 3 11 6 16 17 9 16 30 42 50 48 47 39 30 23 21 22 26 24 21 19 21 22 23 26 27 31 39 40 39 36
6 3 5 7 3 7 8 4 12 6 3 7 13 5 12 8 10 14 10 12 24 42 50 48 43 37 29 24 22 25 30 29 24 22 19 23 22 24 29 32 34 38 41 38
3 6 4 4 2 4 3 4 4 4 5 9 3 9 16 10 14 14 17 27 23 42 44 46 43 39 32 28 26 27 31 34 30 25 23 22 23 23 23 30 33 35 39 45
4 4 4 3 7 3 11 7 3 5 4 7 11 8 11 13 18 24 28 21 25 39 47 50 44 41 35 29 28 27 30 33 35 30 28 26 23 23 24 25 31 34 39 46
4 4 1 6 4 8 4 7 3 3 3 3 4 6 9 11 17 13 9 20 27 35 44 48 44 40 35 30 28 25 28 31 32 31 30 29 28 28 28 30 29 35 39 43
2 2 2 5 5 6 9 3 4 3 3 3 4 4 4 7 12 15 7 13 28 36 40 44 43 39 34 29 26 24 23 29 32 31 31 30 31 29 29 28 34 35 42 44
3 2 2 1 7 9 5 4 4 1 3 2 3 3 10 18 21 10 7 17 27 32 40 43 40 38 32 28 26 24 23 25 28 32 32 31 32 31 29 30 32 35 37 42
3 3 4 9 7 10 5 2 6 3 4 4 1 5 15 18 16 18 7 9 25 38 39 40 38 36 33 30 27 24 22 23 24 24 28 33 32 33 33 33 30 32 37 39
4 1 3 6 2 7 3 8 9 4 0 5 4 2 9 14 19 25 16 22 20 21 20 26 30 33 33 29 26 24 22 21 21 22 24 27 30 36 36 35 37 36 36 38
4 1 4 3 4 2 4 5 5 8 4 7 7 4 4 12 15 17 20 26 34 32 25 20 13 10 16 20 23 25 25 22 21 22 24 25 27 30 31 34 38 39 37 39
3 2 2 7 12 14 15 16 14 10 12 7 7 5 4 4 10 11 14 24 33 33 36 33 25 19 14 9 7 13 18 22 24 24 24 25 24 25 26 28 31 36 41 42
1 3 2 5 7 7 14 16 17 17 19 14 20 7 3 7 3 13 8 22 30 28 31 29 28 28 25 17 10 5 6 15 23 28 28 27 27 28 29 30 30 31 33 36
4 1 1 4 7 12 11 10 14 13 15 18 17 13 2 9 8 11 13 22 28 27 29 31 29 25 20 19 15 13 8 2 11 21 26 23 23 27 31 30 31 34 35 35
6 4 3 4 6 4 2 11 4 6 9 13 5 10 15 15 20 24 22 25 26 25 28 29 26 23 21 18 16 12 9 11 10 6 15 20 23 22 25 30 34 36 36 37
8 4 1 2 2 10 4 5 4 3 6 6 14 19 18 13 29 24 28 27 26 26 27 26 23 20 18 19 18 15 12 10 9 11 6 2 8 15 23 27 29 31 35 40
8 5 4 2 3 4 1 10 7 2 3 9 12 11 1 10 9 8 19 23 23 22 21 21 19 17 17 20 18 16 16 13 13 13 12 7 3 3 6 10 20 29 33 34
3 3 11 6 4 7 8 3 7 0 5 15 19 20 20 11 9 13 15 21 19 17 17 17 16 17 19 17 16 16 16 20 19 16 15 12 10 9 8 8 10 13 19 26
6 6 5 3 5 8 5 6 1 8 17 20 18 17 23 22 18 16 16 17 19 19 16 16 14 15 15 14 14 16 18 17 15 15 15 17 17 16 11 9 7 8 12 12
5 7 5 6 3 11 20 20 22 21 19 18 18 15 20 17 17 15 16 16 17 17 16 15 15 14 14 13 13 13 15 15 16 14 14 14 14 14 14 11 8 4 2 4
3 9 2 5 7 14 21 21 25 24 24 21 20 18 16 17 14 15 13 14 14 14 16 15 15 16 15 14 13 12 11 12 13 15 15 15 15 15 14 13 13 12 11 9
4 8 5 5 4 6 21 21 19 25 18 18 16 15 14 11 14 13 13 13 14 15 15 15 15 16 17 15 12 10 9 8 9 10 10 11 13 16 18 18 19 18 16 13
10 5 1 3 8 11 11 17 14 21 15 16 13 14 13 11 12 11 14 13 14 14 14 15 15 14 14 13 13 12 10 9 7 6 7 8 9 11 15 18 20 19 20 19

GFSCGP_850_spd_081.txt.gz
Wind_Speed
3 3 6 8 6 4 5 9 16 8 8 9 13 16 15 12 11 13 28 29 37 29 31 34 42 36 30 26 24 18 14 15 17 17 18 23 24 29 36 39 36 35 42 44
1 6 8 6 6 7 7 9 11 11 9 8 6 19 18 16 15 21 22 25 34 29 27 33 40 37 33 29 23 18 14 16 17 17 16 22 25 30 33 37 39 42 42 42
6 4 3 5 6 7 10 8 10 13 6 10 12 23 15 17 12 17 23 27 27 31 35 37 40 39 36 31 24 18 14 19 18 17 17 15 22 24 35 35 40 44 44 42
5 2 3 3 4 5 9 6 11 11 5 6 4 12 14 10 14 12 16 19 20 26 35 43 43 42 39 32 24 18 15 20 18 16 20 17 22 30 30 43 42 47 46 42
5 5 3 4 5 4 5 9 13 3 4 7 6 7 3 9 10 13 7 21 13 28 41 44 46 44 39 32 26 19 18 22 21 19 19 22 23 23 28 29 42 47 45 42
4 2 5 6 4 4 4 7 4 2 2 7 9 9 4 7 13 15 10 11 14 25 37 40 43 43 38 31 26 21 22 24 22 19 19 20 23 22 24 31 39 49 45 43
2 4 2 3 1 4 4 3 2 2 3 7 0 10 14 10 6 9 12 22 15 15 30 39 46 46 38 34 28 24 25 28 24 21 18 18 20 22 23 25 33 34 40 42
5 2 7 4 6 4 6 5 3 5 3 3 12 7 6 8 12 21 23 29 25 20 30 42 50 48 41 35 30 27 27 28 27 25 20 18 18 18 20 26 30 31 40 41
4 3 2 5 5 5 3 8 3 6 3 3 4 7 6 17 7 10 13 20 27 18 33 42 47 43 42 36 32 28 28 26 27 27 23 20 19 20 20 20 22 29 32 33
3 1 1 2 4 5 5 5 2 4 4 3 4 5 4 16 17 18 15 12 24 20 29 36 42 44 42 36 29 26 26 24 25 27 23 23 21 20 19 18 20 21 25 29
3 2 1 1 6 6 4 3 4 4 3 2 4 2 4 7 13 18 19 29 18 28 32 37 41 41 40 34 28 26 25 24 24 25 28 25 24 23 21 21 22 22 22 26
3 3 4 9 3 5 3 2 5 3 3 4 3 5 4 5 16 20 22 32 9 18 25 32 38 39 37 33 29 26 24 23 22 22 25 26 25 24 25 24 24 23 26 27
3 3 3 6 4 2 1 1 5 6 3 6 3 5 8 11 16 28 27 33 12 15 16 18 24 27 30 30 27 25 24 22 20 20 21 23 26 26 27 25 23 24 24 27
4 3 4 3 4 1 6 8 7 4 4 4 8 10 5 4 15 20 30 23 24 28 27 22 17 15 16 18 20 20 19 18 18 18 20 22 24 24 25 27 28 28 28 28
3 3 3 6 10 11 14 15 14 15 14 7 12 12 7 5 3 12 25 18 23 25 32 30 29 25 20 14 11 9 10 13 15 17 18 19 20 22 23 24 26 29 30 32
0 1 1 4 7 7 12 18 15 14 18 16 16 18 6 3 11 7 17 16 22 22 27 25 26 25 23 19 15 12 12 14 13 13 15 17 19 20 22 24 26 29 30 30
2 2 2 4 6 11 8 4 6 9 17 15 16 16 8 2 7 7 6 18 16 18 21 25 25 24 21 18 15 12 9 7 14 16 15 17 17 18 20 23 26 30 32 32
6 3 2 3 5 3 4 6 8 12 7 10 17 15 13 16 19 19 17 17 14 13 19 25 25 24 21 17 16 15 13 11 12 14 14 14 13 14 18 21 22 22 24 30
7 4 1 2 3 8 8 3 6 7 5 11 6 19 19 28 31 17 13 17 16 15 23 25 23 22 20 19 17 15 13 13 13 11 8 6 8 9 10 13 14 21 26 28
5 2 3 1 2 4 3 0 3 8 6 16 22 18 17 16 7 2 10 14 17 20 23 21 20 18 20 20 17 18 20 17 17 15 12 7 3 2 4 5 5 9 14 20
3 2 11 7 4 6 5 8 7 4 5 13 21 21 20 10 11 12 12 14 17 18 18 16 15 18 18 16 14 16 17 20 20 17 16 14 12 9 6 5 4 4 4 4
5 5 4 3 3 8 14 7 3 5 11 14 19 24 31 21 19 17 13 14 16 18 17 16 16 16 15 13 13 14 17 17 14 13 11 12 12 12 10 8 5 5 3 1
3 3 3 4 1 10 18 18 18 11 19 15 16 15 19 20 18 14 14 13 15 16 16 15 15 15 14 14 13 13 14 12 11 10 11 14 14 13 11 9 9 7 6 5
7 7 2 4 6 10 17 20 19 19 19 19 18 17 16 20 15 13 12 13 14 14 14 14 13 15 17 16 14 13 10 9 8 8 9 10 11 12 13 13 14 11 11 10
4 12 6 5 5 7 17 20 17 21 18 17 17 16 16 15 15 12 12 13 13 13 14 14 16 16 17 15 14 12 11 9 8 8 9 10 10 12 13 13 14 14 15 12
12 5 3 3 5 12 7 14 15 20 17 14 13 16 16 15 15 13 14 12 12 13 13 14 15 16 16 15 15 15 13 10 8 8 8 9 11 12 14 15 17 16 14 13

GFSCGP_850_spd_084.txt.gz
Wind_Speed
5 4 7 9 5 2 3 4 7 4 5 9 17 25 24 12 13 14 23 23 29 32 27 28 27 32 37 35 33 31 28 23 20 22 23 22 23 24 26 32 31 35 44 44
1 8 7 7 5 5 5 7 8 7 5 6 10 21 20 10 14 22 22 29 29 31 29 28 25 28 35 38 35 32 27 21 19 21 21 24 25 25 25 29 35 36 34 42
6 4 5 7 5 5 5 5 4 8 8 9 9 22 15 14 17 24 26 28 29 29 33 29 26 30 35 39 37 32 25 19 16 18 19 17 19 20 25 27 38 27 34 43
7 5 6 4 4 7 3 5 4 7 7 2 4 9 17 8 12 10 13 21 29 31 27 24 29 32 38 40 36 29 23 17 16 18 17 16 17 23 20 26 41 33 31 35
5 5 4 3 5 6 5 2 3 4 4 6 7 4 7 6 14 12 11 24 24 24 23 26 29 32 37 39 36 29 22 17 18 20 16 14 15 19 18 26 35 36 35 38
5 1 4 6 3 5 3 1 4 4 2 5 10 11 4 4 6 6 7 16 20 13 17 22 21 28 32 35 33 29 23 18 19 19 16 18 16 16 19 26 31 33 39 38
2 4 3 3 1 1 2 2 2 3 3 5 6 7 12 19 20 14 11 15 19 14 16 19 24 30 35 35 36 30 25 21 21 20 17 18 17 17 17 22 34 35 40 42
6 2 7 4 4 3 4 4 2 4 3 4 5 5 5 7 13 21 24 23 17 15 20 17 28 32 38 36 36 31 26 22 22 22 18 18 17 18 17 16 22 33 38 38
4 1 2 2 3 5 3 4 2 4 3 5 4 7 4 14 17 19 22 31 29 26 21 24 31 34 36 38 36 33 26 22 22 23 20 17 16 16 15 18 18 24 29 36
4 4 2 1 3 1 3 3 1 3 3 4 4 4 3 10 16 19 24 23 35 34 23 27 31 34 33 36 35 30 25 21 21 21 20 17 14 13 13 13 17 21 22 28
3 3 1 1 3 5 2 1 2 1 3 2 3 4 4 2 5 15 20 30 35 20 17 22 24 30 32 34 34 29 24 20 20 20 20 16 15 15 13 11 11 12 16 22
1 4 2 6 2 3 1 4 4 3 2 4 2 5 3 6 3 10 19 34 37 3 9 14 20 25 30 32 29 26 22 18 17 16 16 17 14 14 14 14 12 11 11 14
4 2 1 2 2 3 2 2 3 2 4 5 4 4 4 13 13 10 19 28 30 16 14 15 17 21 24 26 25 21 18 15 14 13 15 18 16 14 13 14 15 14 13 13
3 2 3 3 2 2 3 3 5 5 3 5 8 13 15 11 12 12 22 19 19 18 16 16 15 16 19 21 19 17 15 13 11 10 11 12 14 14 15 14 15 15 14 15
3 3 1 3 5 2 6 9 11 10 13 9 16 14 16 11 10 5 20 16 17 19 23 23 24 23 19 16 13 11 10 11 11 11 10 10 10 11 13 13 13 15 17 19
2 3 3 3 4 2 4 15 14 12 14 15 19 22 17 13 4 7 18 16 18 19 21 22 22 22 21 18 16 13 12 12 11 11 10 11 11 12 13 14 16 17 18 20
2 3 2 3 4 6 5 5 4 6 8 14 13 17 4 4 3 8 15 17 16 17 20 21 20 18 18 18 15 12 10 13 16 15 14 13 11 11 12 13 15 17 18 19
6 4 1 2 4 2 5 0 4 7 13 9 16 10 10 11 17 25 20 17 14 16 18 20 21 19 18 18 20 15 15 15 16 16 14 12 12 14 15 15 16 15 16 19
3 4 2 1 1 6 9 2 2 2 18 12 11 19 11 25 25 18 17 18 19 16 18 21 22 23 19 19 17 15 15 14 12 10 7 7 8 7 8 10 12 15 19 20
5 4 3 2 1 3 4 3 8 7 5 17 22 10 22 22 5 3 15 16 17 17 20 21 21 22 23 19 23 21 21 19 17 13 9 6 4 4 4 3 3 5 9 14
3 1 7 6 5 5 4 12 16 5 7 14 19 23 21 9 13 16 18 16 17 17 18 18 19 19 18 19 18 23 22 23 21 17 15 13 11 9 8 6 3 0 2 3
4 4 3 3 3 6 19 10 3 4 12 13 20 24 27 28 25 20 19 18 18 18 18 17 17 18 17 15 15 18 20 19 16 16 14 13 13 13 11 9 6 5 3 2
1 3 2 4 1 9 16 14 15 18 16 15 19 18 21 23 21 19 19 19 20 20 18 16 16 16 16 15 14 15 16 13 12 10 10 12 12 12 12 10 9 7 6 5
6 8 4 4 5 10 17 18 20 20 22 20 20 18 17 20 18 18 18 17 17 16 16 15 15 17 17 15 13 14 13 11 9 9 10 12 12 11 12 9 9 8 9 10
3 10 9 3 7 11 18 15 15 19 19 21 20 19 19 17 18 15 16 15 15 15 16 16 17 18 19 17 16 14 13 11 10 11 11 11 13 15 16 17 18 17 17 14
10 4 3 3 8 11 10 12 14 20 20 18 17 18 17 15 15 13 16 15 15 15 16 17 19 19 19 19 18 16 14 12 10 9 9 10 12 13 15 16 17 16 15 13

GFSCGP_850_spd_087.txt.gz
Wind_Speed
7 7 14 18 16 13 3 4 8 6 8 12 18 25 16 18 22 24 26 28 27 28 28 29 26 24 25 27 28 33 36 34 28 26 22 23 24 25 26 27 30 29 33 36
4 16 11 9 10 11 13 14 14 8 9 7 14 29 22 22 24 30 30 33 31 32 32 30 28 27 25 27 29 35 37 32 28 24 21 24 24 25 26 26 31 33 33 39
13 5 10 11 7 10 11 13 8 9 8 11 14 18 7 6 14 25 31 36 34 33 32 32 30 28 27 28 31 36 38 30 26 22 21 25 26 25 26 28 30 38 34 37
11 7 5 9 11 12 13 9 9 6 4 4 6 10 8 2 8 12 18 22 26 31 34 31 31 32 29 29 32 36 34 28 25 20 22 25 23 25 25 31 23 36 37 39
6 7 8 12 8 9 4 4 4 4 5 4 4 5 4 12 8 10 15 18 24 28 32 31 31 27 26 29 33 35 32 28 23 19 18 17 19 19 22 19 25 30 29 29
6 3 4 4 4 7 5 2 3 3 4 5 9 9 3 5 9 22 18 22 18 20 23 23 22 18 22 28 32 34 30 26 22 17 19 18 14 14 13 18 24 37 27 30
3 3 2 2 5 2 4 3 2 2 4 5 4 9 12 15 8 12 15 21 21 20 14 13 16 22 26 29 32 34 31 27 20 19 20 18 15 14 12 16 26 27 29 32
10 5 9 5 4 5 9 5 3 3 3 2 3 7 2 3 5 9 16 19 21 20 16 12 15 20 23 26 32 36 33 26 20 20 20 19 16 14 13 12 21 25 32 35
7 2 2 3 3 5 5 4 0 2 4 4 4 5 5 6 9 12 15 23 30 29 21 14 20 21 23 26 31 35 32 26 20 21 21 19 17 15 14 12 12 28 24 34
5 6 0 3 3 2 2 4 3 2 2 3 4 6 6 7 13 16 19 21 27 33 29 13 17 22 23 23 28 32 29 24 21 22 21 19 17 15 14 13 13 18 26 29
4 3 4 5 4 7 4 2 2 1 2 2 2 2 2 8 13 13 16 23 25 31 20 6 10 16 19 23 28 31 28 23 20 20 20 18 16 14 11 12 13 12 17 22
2 3 4 3 1 4 2 4 4 2 2 2 4 6 4 12 14 12 16 19 22 28 17 6 7 15 19 24 28 30 27 22 19 19 18 16 13 14 13 12 12 12 13 15
4 1 5 3 3 2 3 4 2 3 2 5 4 3 3 17 16 20 15 18 18 26 18 5 3 13 18 22 26 28 24 20 17 16 17 19 16 14 14 14 14 13 12 13
3 3 1 3 5 3 2 3 2 3 3 5 10 17 21 17 19 16 13 15 17 24 27 17 6 11 16 19 21 22 21 18 15 15 16 17 16 15 14 14 13 13 12 12
3 4 4 2 4 3 3 6 6 7 12 7 16 16 22 19 18 7 8 12 17 23 23 22 21 17 17 17 17 15 18 17 15 13 14 14 12 13 13 12 13 14 13 12
4 2 2 2 1 4 6 11 10 10 10 13 17 20 14 13 17 7 10 14 17 18 18 17 16 16 18 19 17 16 17 14 13 11 11 11 13 14 14 13 12 12 12 13
2 3 2 3 2 7 4 1 4 7 8 9 13 14 16 9 12 11 11 14 17 15 15 16 16 15 14 17 17 16 15 16 16 15 13 12 11 12 13 13 13 12 12 13
3 3 1 2 4 1 2 8 3 5 12 11 13 17 13 5 15 15 11 14 19 15 14 15 16 16 15 16 18 19 16 14 15 14 12 11 12 12 11 12 13 13 14 15
2 3 2 1 1 4 2 4 5 9 15 14 13 18 21 20 21 18 15 17 19 20 15 18 18 21 18 20 21 22 21 18 16 13 9 9 9 9 9 10 9 11 12 13
4 2 2 1 2 2 2 10 14 9 3 15 16 18 16 24 5 4 13 15 20 23 19 18 21 24 28 27 23 22 24 18 17 14 11 10 9 8 6 6 5 6 8 8
2 1 3 2 2 5 10 16 14 3 5 12 21 19 31 11 13 18 16 20 23 22 23 18 22 25 25 25 24 26 25 26 23 17 15 14 14 13 11 10 9 7 7 7
1 2 2 2 3 3 17 5 5 3 5 14 20 22 24 27 24 23 22 23 22 23 21 23 22 21 22 23 21 22 22 21 19 17 16 17 16 14 13 11 11 10 9 8
2 4 3 4 3 7 14 12 12 15 13 17 17 16 20 24 23 21 21 22 22 23 22 21 22 21 21 20 18 18 19 14 13 9 11 13 12 11 11 10 10 9 9 8
7 10 2 2 6 12 15 15 16 15 17 18 17 16 18 21 18 19 20 21 22 23 23 20 20 22 20 19 17 17 13 13 12 12 15 15 15 15 14 13 12 11 12 11
4 9 7 2 8 8 18 17 13 15 16 19 18 19 18 18 20 20 22 23 23 22 22 22 23 23 21 17 15 12 12 11 11 13 15 16 18 19 19 19 19 18 18 15
7 4 3 3 4 13 10 12 13 16 16 15 15 19 20 19 20 19 23 22 22 22 21 21 21 21 21 20 19 17 14 12 12 14 15 16 17 17 18 18 18 18 16 13

GFSCGP_850_spd_090.txt.gz
Wind_Speed
19 14 19 22 20 17 12 14 15 9 8 17 21 21 19 17 25 23 27 29 31 32 28 27 24 21 19 21 21 23 27 32 38 39 36 32 31 28 29 31 34 32 33 34
11 22 20 15 14 17 20 21 20 17 13 14 19 21 21 23 20 30 30 30 30 30 30 30 29 24 20 20 22 24 27 32 38 32 26 25 28 25 23 26 26 29 29 33
19 4 17 17 16 17 18 18 14 15 14 19 21 22 14 4 11 15 17 19 23 28 28 29 29 27 21 23 24 24 27 30 34 28 24 22 21 22 23 26 27 30 29 30
18 20 7 15 19 16 17 14 14 14 10 7 1 6 11 6 5 7 4 11 16 22 24 26 27 28 24 22 21 23 26 27 29 31 23 22 19 22 27 25 27 29 33 33
17 10 18 16 13 14 13 5 10 9 10 12 16 8 5 7 9 6 11 14 16 16 14 21 24 26 23 21 22 24 26 27 26 29 21 20 18 16 16 22 27 30 30 33
21 3 10 14 14 12 5 7 8 8 8 10 17 13 4 2 8 11 12 16 16 16 13 12 19 20 21 21 24 26 28 27 25 24 22 18 17 16 14 23 23 22 26 34
19 13 5 8 11 9 14 11 5 7 5 6 4 8 9 8 4 8 12 18 19 19 15 12 8 14 18 22 25 30 29 28 26 24 20 20 15 14 13 13 18 20 27 35
17 15 14 10 12 8 16 13 6 8 6 3 8 6 4 3 1 7 14 19 22 25 16 12 8 10 17 19 23 31 31 27 25 23 19 18 15 11 13 12 15 20 26 28
16 17 10 11 10 11 9 9 5 4 5 5 7 8 7 4 5 10 15 21 24 26 21 15 7 11 15 16 23 29 29 24 22 20 20 18 16 13 12 11 16 24 26 28
6 11 12 10 11 6 7 9 4 5 5 6 5 8 3 6 11 15 17 20 25 26 23 17 6 11 13 15 22 28 29 22 21 19 20 18 16 14 13 11 12 20 24 25
9 8 12 12 11 16 7 7 5 2 3 3 2 3 7 8 12 15 16 20 23 23 22 17 9 5 12 15 20 27 28 23 22 21 20 18 17 14 13 13 11 16 19 26
11 4 10 12 5 6 6 7 9 5 5 1 3 5 6 7 14 15 16 18 18 19 19 13 6 3 9 15 18 26 28 23 20 22 21 19 17 14 13 14 12 13 16 20
6 6 8 8 5 4 7 4 5 4 0 7 3 1 2 15 17 19 15 16 15 17 18 14 6 4 9 13 16 25 27 22 20 25 19 21 18 18 15 14 15 15 13 14
18 2 4 7 8 8 6 9 8 6 4 4 8 14 14 17 18 15 13 12 10 12 15 16 15 9 5 9 16 23 24 20 22 23 18 20 18 18 17 17 16 15 15 16
2 9 10 9 8 5 5 7 9 9 7 6 9 13 15 15 16 22 8 7 8 12 17 18 19 18 13 9 15 22 17 18 18 17 18 19 18 16 17 17 17 17 15 14
11 5 5 6 4 3 3 5 8 8 8 8 13 12 11 22 21 10 8 9 8 10 13 18 16 10 10 13 16 20 19 16 17 19 18 16 16 15 13 14 15 17 17 17
5 1 2 3 2 5 4 2 1 1 5 9 13 15 16 15 7 11 8 8 8 9 11 13 15 10 6 9 14 20 20 20 22 22 21 20 20 19 18 18 17 15 14 13
3 5 3 2 4 2 7 6 5 7 10 12 14 16 17 20 9 13 14 10 10 9 12 13 12 12 7 7 12 18 21 21 20 20 20 19 17 17 19 19 19 20 19 19
2 1 2 1 2 2 7 8 8 10 4 11 14 18 21 3 16 16 17 14 12 14 16 15 14 16 14 12 12 17 21 23 22 20 17 16 16 16 16 17 18 18 18 19
1 2 3 0 1 1 7 13 16 11 2 12 16 17 21 20 4 5 14 14 15 17 19 19 17 18 23 22 18 19 22 23 23 21 18 15 14 13 12 13 14 14 15 16
2 2 2 2 2 4 11 19 28 3 6 11 14 18 24 11 12 14 14 17 18 18 18 23 17 22 24 24 27 28 29 28 26 25 19 18 18 14 12 13 13 13 13 12
3 3 2 2 3 2 24 5 6 7 9 9 12 14 19 19 20 19 19 19 20 21 22 23 25 24 23 23 23 26 30 28 24 23 21 21 20 17 16 15 15 15 14 13
2 5 4 5 3 8 12 12 10 12 11 11 10 13 15 18 18 16 16 17 19 20 22 22 24 25 25 23 20 27 27 24 20 18 18 21 17 15 15 14 15 15 14 13
3 12 2 4 7 10 12 12 14 14 13 12 12 12 14 17 16 16 16 18 19 20 21 20 22 25 26 23 24 24 23 21 20 21 21 21 18 16 16 15 14 15 14 13
4 8 5 5 9 5 14 14 11 12 12 13 14 14 15 16 15 15 18 20 21 22 23 24 24 25 26 22 22 21 20 18 18 18 18 18 18 19 18 18 20 18 17 14
7 4 4 3 3 10 8 9 9 11 11 11 13 15 16 15 15 16 18 19 20 22 22 23 23 23 23 22 20 19 17 14 15 16 16 15 15 17 16 17 18 18 16 15

GFSCGP_850_spd_093.txt.gz
Wind_Speed
18 17 24 26 24 24 18 21 17 17 16 11 15 21 23 23 26 25 29 28 28 28 28 25 25 25 25 25 24 25 27 31 31 37 38 39 38 34 32 34 32 31 32 32
19 24 23 22 22 20 21 23 23 21 20 19 20 24 24 22 19 28 28 26 25 24 23 24 27 28 28 27 25 25 26 28 33 35 36 26 28 27 32 32 31 31 32 31
25 23 21 26 20 20 21 23 19 20 17 17 20 25 27 27 23 29 25 21 16 17 20 23 25 28 29 27 26 26 25 28 34 29 25 23 24 28 27 27 25 27 29 30
25 23 24 16 26 22 22 20 20 18 16 11 6 9 14 5 9 8 5 5 9 12 17 21 24 26 30 30 25 25 25 28 32 27 25 28 32 28 26 24 25 26 26 26
25 29 23 20 18 20 19 15 16 16 13 16 18 10 16 13 10 11 2 6 10 11 13 15 18 23 28 30 25 24 24 28 23 28 28 28 22 17 15 19 22 22 25 27
24 30 20 20 23 16 14 11 12 11 11 14 17 15 10 11 7 5 6 6 8 11 11 12 14 20 25 26 23 22 24 26 25 28 28 25 21 18 17 18 18 20 24 26
20 27 10 12 16 20 16 14 9 10 11 13 12 12 14 12 8 3 5 10 13 14 13 9 9 13 20 21 20 22 22 26 26 27 26 22 18 17 18 15 20 23 25 25
16 17 23 14 14 13 20 17 9 11 10 13 14 7 7 14 6 1 7 9 13 18 18 11 8 8 13 16 20 19 23 26 26 25 22 19 17 16 14 17 16 17 20 22
16 23 26 19 17 14 13 18 20 13 13 6 6 10 7 9 10 5 10 12 16 20 22 18 13 5 10 16 18 25 23 26 25 22 20 18 17 14 13 15 15 14 13 17
9 11 8 19 15 18 12 12 9 8 5 8 11 14 9 10 5 8 10 13 18 21 23 22 17 2 7 12 12 27 23 24 22 20 18 18 18 14 12 12 12 9 12 17
18 12 21 17 16 19 12 12 8 6 9 6 7 6 14 9 10 11 12 15 19 22 21 22 18 9 5 9 11 21 24 22 21 18 18 18 16 15 12 12 10 9 11 16
15 7 11 21 20 21 19 16 16 6 10 5 4 2 4 13 13 13 14 16 17 20 19 20 17 13 5 10 8 17 20 25 22 18 18 17 15 14 15 13 11 9 9 15
8 5 10 9 9 12 19 12 11 3 1 8 4 1 9 12 14 14 18 14 16 18 21 20 18 11 4 5 9 15 17 21 19 19 19 16 15 13 13 13 12 12 12 19
14 9 5 3 13 12 10 11 10 7 5 6 8 11 12 16 13 16 19 15 15 16 19 20 17 14 7 3 11 15 22 18 16 17 18 15 15 13 13 13 12 13 13 15
5 4 9 12 10 13 10 10 9 7 6 5 9 10 12 14 16 20 16 17 15 16 18 19 19 15 11 5 7 11 18 18 17 18 15 15 14 15 14 15 15 13 11 12
7 4 11 13 11 10 9 4 2 4 5 10 9 9 18 18 19 16 17 15 16 17 17 17 17 15 12 6 6 9 16 18 13 17 15 15 13 15 15 15 15 17 16 17
8 4 7 9 8 4 5 4 1 1 8 13 9 16 19 19 13 13 15 15 15 17 17 16 16 16 12 7 5 9 16 20 20 21 20 20 20 19 18 16 15 15 15 15
8 10 6 3 3 4 8 8 7 10 12 14 14 17 18 14 14 18 19 16 17 17 18 17 15 12 11 7 3 8 14 19 21 22 22 22 21 19 18 16 18 17 19 19
6 6 4 2 1 11 9 10 8 9 7 16 17 19 21 3 12 20 19 17 16 16 15 16 15 12 10 12 7 7 13 18 19 19 20 20 21 21 19 18 18 18 18 17
5 5 3 2 3 3 9 15 16 13 4 13 15 17 16 15 2 5 15 16 16 16 16 17 19 16 17 16 16 12 17 19 19 16 16 18 18 19 19 19 19 18 19 21
2 3 3 4 2 6 15 21 27 3 4 12 14 15 21 8 8 7 11 17 19 19 18 18 22 24 25 24 23 27 25 28 22 21 18 20 18 19 16 15 16 15 15 15
6 5 3 2 3 4 27 8 7 8 7 9 12 12 13 13 13 13 14 17 19 21 21 22 24 26 23 25 28 29 29 25 25 25 22 27 26 29 25 21 21 22 16 17
3 6 4 5 4 7 13 13 11 10 9 12 11 10 10 11 13 14 14 16 17 18 19 20 22 24 26 26 29 29 22 21 24 23 22 24 23 25 21 23 23 24 15 19
4 14 4 5 7 9 11 12 12 10 12 12 11 10 10 12 13 15 15 17 19 19 19 20 22 24 26 24 25 25 22 19 22 25 25 22 20 20 19 17 17 16 13 13
4 8 5 6 9 10 14 12 9 10 12 12 12 12 11 11 13 13 15 18 18 19 21 22 23 25 25 24 25 22 20 18 22 22 24 24 25 25 25 24 22 19 18 14
7 5 4 4 4 11 10 9 9 11 12 11 11 12 12 13 13 14 16 17 17 18 19 20 21 22 23 23 23 24 22 21 20 22 23 19 19 21 26 24 24 24 20 17

GFSCGP_850_spd_096.txt.gz
Wind_Speed
19 13 22 23 23 27 24 26 25 23 18 19 18 21 23 17 22 22 23 21 25 27 28 28 26 24 27 28 31 35 35 34 34 36 35 37 36 34 32 32 29 27 26 24
18 23 24 22 25 26 27 27 27 22 21 17 20 25 18 18 21 28 30 27 24 28 29 32 31 30 27 26 28 27 30 32 31 36 35 38 36 34 32 34 30 30 29 27
21 27 24 26 24 26 26 26 21 20 19 18 21 24 22 27 28 30 33 26 27 27 23 18 18 23 31 32 30 29 26 24 27 36 30 32 29 27 30 35 33 30 30 30
23 21 26 28 26 24 25 23 18 19 16 16 18 15 22 17 14 23 28 33 22 6 8 12 15 19 24 30 35 32 26 25 29 37 31 30 32 34 35 32 29 29 27 27
25 25 24 27 30 24 19 22 16 18 18 17 20 12 17 17 18 11 9 6 1 5 7 11 14 19 24 24 32 34 30 28 33 37 30 28 33 34 27 27 28 25 25 25
26 36 28 26 27 26 12 16 15 17 13 15 19 17 14 15 14 13 11 5 8 11 12 11 13 13 19 23 25 33 32 29 35 35 29 29 36 30 19 19 20 22 22 25
26 25 27 27 26 11 13 10 8 7 10 13 18 16 12 13 6 10 8 11 15 16 15 25 14 14 14 21 28 33 32 27 30 30 29 27 29 21 20 20 18 20 22 23
16 21 15 19 18 9 23 18 7 7 7 13 19 9 10 11 16 10 14 14 18 21 22 26 20 22 13 17 25 26 24 26 26 23 29 30 25 23 24 24 20 25 24 24
9 14 17 22 8 6 17 23 20 12 14 6 6 11 17 18 6 12 11 18 21 21 19 21 22 27 11 11 20 23 20 22 26 26 26 27 22 22 23 22 24 23 19 19
4 11 17 9 13 20 12 12 13 7 4 4 2 5 7 9 10 9 10 14 21 20 18 21 23 28 17 10 8 12 17 20 26 27 25 24 22 20 19 22 19 18 18 18
13 7 13 12 7 15 11 4 4 7 10 2 2 4 10 13 8 9 12 19 22 18 19 21 22 21 18 2 3 10 21 9 25 26 23 21 18 20 18 16 15 14 14 13
9 5 7 15 19 28 19 14 17 4 5 7 2 3 6 11 9 16 17 23 21 20 21 22 22 19 16 13 8 6 10 11 17 22 21 16 19 17 13 15 10 10 9 7
6 4 5 4 13 21 19 16 11 14 2 6 5 4 6 13 19 22 23 23 25 22 24 26 24 21 18 12 7 5 13 8 19 19 17 16 16 17 14 13 10 8 8 9
14 6 10 10 10 12 16 15 3 2 4 4 6 13 7 16 16 17 23 24 22 21 24 25 28 24 19 14 6 1 5 10 15 19 14 16 15 14 12 11 10 9 9 12
3 7 9 23 29 13 10 11 7 7 5 3 4 15 17 18 16 19 21 21 22 23 25 25 28 27 22 17 9 2 5 9 10 13 15 15 14 11 10 11 9 9 9 12
3 3 10 9 4 21 12 8 16 9 9 9 11 7 21 24 23 23 22 22 21 23 24 25 25 26 25 21 16 8 1 10 12 17 17 16 15 13 14 15 12 10 11 10
4 1 2 11 15 19 15 10 11 19 20 14 12 18 21 17 16 20 21 20 21 21 23 25 25 26 25 22 18 11 5 8 17 20 19 20 19 20 18 19 20 20 16 16
6 11 1 3 4 9 11 17 19 21 18 18 16 20 18 12 18 21 21 19 19 19 21 22 24 25 24 19 15 12 6 5 14 20 21 18 16 18 20 19 18 20 19 19
6 8 3 3 9 9 14 18 15 11 11 17 16 17 20 14 10 23 21 18 18 19 20 19 20 21 20 20 16 10 8 7 11 16 18 17 18 19 20 24 22 22 21 21
7 6 3 2 6 3 9 18 20 9 4 15 17 15 16 13 4 6 16 18 20 21 22 21 22 24 26 25 21 15 14 14 17 14 15 14 13 15 15 15 16 16 18 21
5 6 7 5 5 6 17 23 19 2 5 13 14 15 19 10 9 8 12 17 20 23 23 22 25 27 28 28 26 27 25 23 19 18 17 18 16 13 13 15 17 19 19 19
8 6 6 7 5 4 30 10 7 5 11 11 12 13 13 13 13 14 16 17 19 21 24 25 26 26 25 27 29 30 30 22 18 22 26 24 24 24 25 24 22 20 21 21
5 5 3 6 4 10 15 15 13 12 11 13 12 12 12 14 15 16 18 20 21 23 23 24 26 26 26 25 27 28 25 24 23 28 24 27 25 21 21 22 25 23 23 24
4 16 3 6 8 11 13 13 14 12 12 12 13 12 13 15 15 17 19 20 22 23 24 24 26 28 28 26 24 25 22 24 28 30 30 27 24 22 20 20 19 16 21 21
5 10 7 7 10 12 14 12 10 11 13 15 15 15 15 15 16 16 17 18 19 20 22 22 24 25 26 25 25 24 22 22 23 26 27 29 27 27 26 26 26 22 23 20
7 4 4 4 5 12 9 9 8 11 13 14 14 15 15 15 14 14 16 16 17 18 18 19 20 21 22 24 24 22 21 20 22 23 22 20 21 23 23 23 24 23 21 20

GFSCGP_850_spd_102.txt.gz
Wind_Speed
5 3 5 6 9 13 13 16 19 24 25 19 21 24 20 25 19 19 27 31 36 36 36 37 30 26 21 31 44 41 44 43 42 42 40 40 40 41 38 36 35 32 32 32
3 8 10 10 8 12 15 18 23 21 22 20 22 25 23 14 13 23 22 27 31 32 33 35 30 27 26 24 26 45 48 44 47 46 42 44 45 45 42 39 36 35 35 34
8 4 8 8 9 9 13 19 20 22 24 22 16 22 18 18 10 23 29 29 33 35 36 39 38 35 30 30 29 29 35 48 48 46 45 47 45 40 41 36 37 40 36 34
12 8 8 10 15 11 16 13 13 18 18 16 6 18 22 10 14 17 24 27 35 36 38 32 31 32 18 10 18 32 32 41 44 48 47 50 46 44 42 38 36 38 38 36
14 15 12 16 16 17 20 10 15 19 19 8 20 12 18 8 16 14 11 21 30 15 12 8 7 6 5 7 7 12 26 39 37 42 48 51 47 40 38 37 36 37 35 33
17 10 6 9 8 9 11 12 15 14 2 8 15 15 25 15 16 16 6 24 27 19 20 17 13 4 2 7 5 7 14 28 40 38 46 47 40 38 35 33 34 35 34 36
10 7 6 9 5 5 2 4 7 4 5 12 12 12 15 13 17 12 12 26 24 18 31 29 22 19 15 7 7 10 14 27 40 44 42 43 39 34 31 29 28 30 34 36
4 7 4 6 1 7 11 5 5 8 4 5 9 5 2 12 16 22 19 18 28 29 33 34 30 25 22 19 14 4 18 26 38 36 39 40 34 31 27 24 22 24 23 24
4 5 15 17 16 3 2 9 15 10 8 7 5 5 5 12 19 19 24 25 25 26 34 35 30 30 24 23 21 19 7 20 33 33 38 36 29 27 23 21 18 19 20 22
3 12 8 12 10 10 10 5 3 1 4 7 7 2 3 13 15 13 17 23 23 26 38 29 30 29 25 24 21 14 14 8 27 31 28 24 23 21 21 23 22 21 21 22
3 5 8 9 6 4 3 1 4 3 3 4 3 3 5 6 14 14 17 23 25 28 29 32 30 29 26 23 19 19 14 7 10 19 20 20 22 20 22 24 20 19 20 21
1 4 7 14 23 16 13 6 4 3 4 6 2 4 6 14 15 16 20 26 22 22 30 36 34 30 28 25 22 19 14 7 3 10 18 20 23 21 22 20 17 17 16 21
2 3 6 12 2 8 4 2 2 6 2 2 2 4 10 12 15 21 24 23 23 28 35 37 37 34 30 27 23 19 14 10 5 9 15 20 19 18 17 16 15 15 20 19
7 6 10 10 10 7 6 12 11 4 2 4 5 6 14 16 17 21 28 27 27 31 34 34 38 37 32 28 26 20 17 14 4 11 11 11 12 13 14 13 13 13 11 9
4 7 12 19 21 15 14 13 13 16 7 5 4 10 13 14 15 21 22 24 27 31 31 35 37 38 34 30 26 22 17 15 13 9 9 8 7 9 10 9 10 7 7 8
4 5 9 19 20 11 5 12 9 18 15 10 9 10 13 18 20 24 25 25 27 28 31 33 36 36 36 33 29 25 21 18 16 5 7 10 11 11 12 11 8 9 10 9
5 4 5 13 14 11 11 11 14 22 20 7 8 6 11 13 17 23 23 23 25 25 26 29 32 34 33 31 27 26 23 18 16 10 6 8 14 16 17 15 13 12 11 10
8 8 2 2 2 6 6 8 18 24 17 13 11 9 13 16 19 19 23 22 22 24 26 30 30 31 32 30 27 24 22 20 19 13 9 6 6 12 16 19 20 15 13 15
11 4 4 2 6 10 3 10 9 7 10 12 10 8 10 11 5 20 20 21 22 23 25 27 28 29 30 31 31 28 26 24 22 21 18 14 6 7 15 17 18 17 15 12
6 7 2 2 4 4 5 18 16 7 5 12 12 11 10 10 4 5 17 19 22 23 24 27 28 29 31 33 31 33 35 33 31 26 22 17 13 10 10 10 13 16 15 16
4 3 7 5 4 4 13 19 4 5 1 9 11 12 17 6 9 9 14 19 21 23 23 24 27 30 32 34 34 35 33 35 29 25 22 21 19 15 12 15 15 15 14 15
6 4 4 3 4 3 27 5 5 6 10 11 12 13 17 17 17 17 19 20 21 23 24 26 29 30 29 31 34 36 36 30 27 26 26 25 23 21 17 17 19 19 16 17
5 5 2 5 3 5 12 14 12 12 13 11 14 14 16 18 17 17 18 19 21 23 23 25 26 26 29 29 29 28 29 30 30 30 28 25 23 23 22 22 22 22 23 24
6 12 4 3 4 9 10 12 12 13 13 12 13 15 15 17 15 17 17 18 20 20 22 21 23 26 26 26 25 25 23 23 24 28 29 27 26 25 25 26 26 25 25 24
3 6 3 5 9 11 10 10 11 14 15 15 15 15 16 14 16 16 16 16 17 17 18 20 23 24 24 22 23 23 22 20 22 22 23 25 26 26 25 26 25 26 25 22
5 1 1 2 6 8 7 9 12 15 14 13 15 16 15 13 14 13 14 14 15 16 15 16 18 19 20 22 20 21 22 20 20 20 21 20 20 21 21 20 19 20 19 18

GFSCGP_850_spd_105.txt.gz
Wind_Speed
2 2 5 8 8 7 5 9 17 17 14 14 14 20 20 31 32 29 27 32 37 41 40 39 35 37 35 33 31 34 42 42 46 51 46 44 42 35 34 33 34 35 34 33
2 5 10 6 5 7 9 12 14 17 10 10 19 24 23 20 21 33 34 33 35 38 36 37 36 35 32 31 29 29 32 36 43 50 46 44 42 38 35 37 37 34 36 35
6 4 2 5 5 5 7 6 7 11 17 13 15 21 19 17 20 26 38 31 25 20 30 35 35 35 36 35 36 31 27 30 39 47 48 46 42 41 42 41 38 35 37 36
4 3 2 6 5 4 16 5 10 13 9 15 1 22 18 19 22 19 29 5 15 19 20 14 17 25 27 30 33 30 29 29 33 42 48 49 46 43 45 43 40 37 36 36
5 5 6 7 8 8 18 8 8 8 13 16 20 13 23 15 19 18 1 10 14 17 21 23 13 7 9 16 19 20 26 28 32 36 45 47 47 46 46 47 43 41 40 39
3 4 2 4 4 5 9 8 14 10 9 14 21 10 26 9 14 9 7 14 14 17 22 26 18 11 3 3 11 16 19 24 30 31 37 44 43 47 48 47 46 42 43 39
6 3 4 2 4 4 2 3 3 3 6 14 11 10 18 14 9 10 10 11 16 22 23 28 28 21 18 10 5 11 13 17 26 31 33 39 42 45 46 45 43 40 41 41
4 6 1 5 2 6 11 6 4 7 5 6 5 5 4 13 16 21 20 19 21 22 23 27 27 23 22 20 12 6 12 16 18 27 32 37 38 33 36 38 35 31 35 34
4 4 13 13 13 4 3 5 8 9 13 8 5 10 1 17 15 19 24 27 27 30 20 29 25 24 25 24 24 14 4 12 20 22 28 34 34 34 33 30 28 26 24 23
4 13 8 12 3 7 12 6 1 4 3 4 4 6 9 14 17 16 16 18 24 24 30 29 29 26 25 25 21 20 12 3 17 21 27 31 26 24 25 25 26 24 19 19
2 4 6 6 7 7 2 5 7 4 3 2 1 4 4 8 12 15 15 23 24 28 33 29 25 29 28 24 22 21 17 10 9 18 19 22 19 22 24 24 22 21 20 22
3 2 6 11 18 16 11 8 6 3 4 4 1 3 5 8 13 17 21 24 24 28 32 30 36 32 29 27 24 23 21 14 6 12 18 17 18 20 21 21 20 19 19 18
3 2 5 10 5 7 3 2 11 3 2 3 3 3 7 10 13 18 19 21 24 28 32 39 38 36 33 31 27 25 23 18 12 3 13 15 19 20 20 20 17 17 18 18
6 4 8 9 12 9 9 14 19 11 3 5 4 3 11 13 14 17 22 22 24 28 31 35 38 38 34 32 29 25 24 21 11 8 12 11 11 13 15 14 13 13 14 15
5 7 11 17 19 18 13 11 14 5 5 4 5 6 8 12 13 16 18 21 23 28 31 32 34 37 37 34 31 27 24 21 15 11 12 11 14 10 8 8 7 9 10 8
2 4 6 18 15 2 14 19 17 11 12 10 12 8 8 13 16 23 23 23 25 27 29 32 35 37 39 36 34 30 27 23 18 15 14 10 14 14 12 9 8 8 9 8
4 3 3 5 14 11 10 10 14 11 16 9 5 6 7 12 16 21 22 22 21 22 26 32 35 36 36 33 33 32 29 23 22 21 21 15 9 12 13 11 11 12 10 12
7 4 3 4 8 4 6 6 12 17 13 12 11 9 10 13 17 20 21 20 22 25 28 30 30 32 34 34 35 32 30 28 27 25 24 21 14 5 6 9 12 14 14 13
10 4 2 2 7 7 2 7 6 5 6 11 8 5 3 8 4 13 20 19 21 23 24 27 29 30 32 35 36 37 36 36 34 32 29 25 22 18 11 4 4 7 8 12
6 3 2 2 4 3 3 13 12 5 3 10 11 9 10 8 4 3 16 17 19 21 23 26 30 33 36 37 37 38 39 39 39 36 32 27 24 20 19 17 10 9 6 7
4 3 6 4 4 5 10 17 4 3 1 8 9 12 18 5 6 5 11 16 18 21 23 24 28 31 33 35 37 40 40 40 34 32 31 31 29 27 23 18 16 14 13 13
5 4 4 3 3 4 21 3 3 6 9 8 8 11 16 15 13 12 14 16 18 21 22 24 27 28 28 30 32 35 39 35 33 32 33 32 30 28 26 24 21 17 15 13
4 4 2 5 3 5 8 12 11 11 13 11 12 11 12 12 12 11 13 15 18 20 22 24 26 27 28 30 29 31 29 29 30 32 33 32 30 29 27 27 27 26 25 22
4 9 3 1 4 9 10 11 12 11 14 13 12 12 11 13 11 11 12 14 16 19 22 22 24 26 27 26 27 27 27 26 26 29 30 29 29 27 27 27 26 27 27 24
2 6 4 5 5 9 9 9 10 13 13 13 11 10 10 10 11 11 12 14 15 16 18 20 22 24 24 24 25 26 26 24 25 26 26 26 26 26 26 26 25 24 23 21
4 1 2 2 11 8 6 9 9 12 11 11 13 12 9 8 10 10 13 14 15 15 15 17 19 20 22 23 24 24 24 24 24 25 25 23 22 21 21 20 18 17 15 14

GFSCGP_850_spd_108.txt.gz
Wind_Speed
1 3 5 9 8 5 4 5 11 6 6 6 8 18 27 18 16 21 25 29 32 38 41 38 35 32 28 28 28 31 31 31 37 46 51 48 52 46 40 38 36 36 34 34
3 4 9 3 3 5 6 8 8 8 5 4 8 21 22 20 8 18 27 31 32 35 33 38 32 27 26 27 29 29 29 29 33 46 52 51 48 51 43 44 42 37 34 35
5 4 4 4 2 4 4 5 5 14 5 8 10 17 9 13 26 23 27 34 29 24 22 22 21 22 25 28 30 29 30 30 29 32 43 48 44 48 46 47 42 39 39 33
4 1 2 3 4 5 7 8 9 10 8 9 5 14 32 9 15 17 33 36 4 8 13 15 18 19 20 22 25 27 27 29 29 31 36 46 48 48 53 43 42 43 40 35
3 3 5 3 4 2 4 6 8 7 6 8 15 8 12 19 23 13 10 13 15 15 14 14 15 19 19 19 20 23 28 28 30 34 37 42 50 48 45 45 49 45 43 39
3 2 4 7 5 5 8 5 7 7 2 9 18 10 15 6 11 18 12 16 18 20 21 17 13 12 11 11 12 16 24 26 33 35 37 40 46 47 49 47 46 45 45 41
4 4 1 5 2 4 5 6 3 4 1 6 6 7 5 9 10 12 16 26 26 25 24 25 22 15 13 13 11 3 13 20 25 32 35 40 41 44 45 48 44 45 46 41
1 3 1 3 3 4 2 6 3 5 2 5 11 6 2 8 14 17 19 23 24 30 31 29 25 23 18 17 14 10 2 9 17 20 26 31 34 38 42 41 40 39 42 43
3 4 5 13 12 6 1 5 7 6 10 6 4 3 7 9 13 20 20 21 25 31 35 32 26 26 22 20 18 16 9 2 10 18 21 24 27 32 34 33 33 33 32 29
2 6 8 9 3 6 8 3 2 2 3 5 5 2 4 12 17 16 16 21 28 34 35 35 29 29 24 21 20 17 13 7 3 12 17 19 25 25 22 24 24 21 19 19
1 3 5 3 6 5 2 3 5 4 4 3 2 1 5 9 12 13 14 22 24 30 31 34 33 33 27 23 21 20 18 9 2 9 13 18 20 18 20 20 18 19 18 17
2 2 5 7 10 12 7 4 3 1 2 4 2 2 6 8 10 16 20 24 24 28 32 32 33 33 33 29 27 24 21 19 12 6 10 14 13 15 17 18 17 16 17 20
3 0 4 7 4 0 3 1 3 5 6 5 3 1 7 11 12 18 20 22 25 29 36 37 38 41 40 35 31 29 25 23 17 13 9 13 14 10 13 15 14 16 17 19
2 5 7 6 9 9 8 12 12 14 4 3 2 4 10 11 13 18 22 21 24 27 32 35 40 41 40 37 34 30 28 26 21 16 12 8 8 7 7 10 11 12 13 11
7 6 8 15 17 13 5 6 14 5 4 3 6 6 8 8 11 16 18 21 25 28 32 36 38 43 41 39 36 32 31 29 25 19 15 14 12 16 15 14 12 10 6 6
3 2 1 13 12 4 4 10 8 11 9 10 12 7 6 9 11 17 22 24 24 25 28 35 39 41 41 38 36 34 33 31 27 26 22 18 12 16 16 13 16 11 9 9
3 3 2 2 18 8 5 6 9 9 15 5 4 5 5 8 14 19 21 22 23 26 28 33 34 35 37 37 37 36 35 31 30 29 27 24 17 17 16 17 15 13 12 12
5 4 3 4 6 3 3 5 11 15 11 10 9 7 7 10 14 20 21 20 23 25 29 31 31 34 37 38 39 38 37 37 36 35 30 28 23 20 19 13 11 11 7 7
11 6 3 3 3 4 6 4 3 5 6 8 4 3 3 7 3 13 20 19 19 22 23 25 29 32 35 39 40 39 40 39 40 41 38 34 29 27 24 23 21 15 7 6
4 3 1 3 3 3 2 8 6 7 2 6 6 5 7 8 3 3 15 17 19 21 24 25 26 29 35 38 38 41 42 41 42 40 37 36 35 32 30 26 24 22 19 18
4 3 3 3 4 4 6 13 7 2 3 5 8 9 9 5 6 4 9 14 17 20 23 23 27 31 32 32 36 39 40 42 38 36 36 37 36 35 34 31 27 24 23 21
4 3 3 3 3 3 15 2 1 7 9 11 12 14 19 15 10 9 12 15 18 21 22 25 28 30 30 31 33 35 37 34 34 34 35 36 35 34 33 33 33 32 30 29
2 2 1 4 3 4 8 12 10 7 14 12 15 12 11 12 11 10 12 15 18 21 22 23 26 27 29 31 31 34 32 30 31 32 33 33 32 31 31 31 32 32 32 31
2 3 3 2 3 7 7 10 11 10 16 15 14 12 11 12 10 11 12 14 16 18 20 22 24 27 28 29 29 30 29 29 29 30 30 29 30 29 29 30 30 30 31 29
2 3 5 4 7 9 7 10 12 13 13 13 12 11 10 10 12 11 12 12 14 16 17 20 23 25 26 26 27 27 28 27 28 28 27 27 27 27 27 27 27 27 27 24
2 2 3 3 10 6 8 12 12 14 13 11 10 11 9 8 10 9 12 12 13 14 15 17 19 20 22 23 24 26 27 27 26 26 27 26 25 23 22 21 19 19 18 17

GFSCGP_850_spd_111.txt.gz
Wind_Speed
1 3 8 11 11 3 3 5 10 9 12 10 11 27 22 15 18 19 20 25 28 30 31 30 31 31 35 32 29 27 27 29 32 36 41 42 44 44 45 44 38 39 38 38
2 9 10 4 4 5 5 7 8 8 4 9 16 30 27 13 8 18 23 24 31 35 29 24 28 30 30 28 28 29 30 30 31 35 38 40 43 46 46 49 46 42 40 37
8 2 5 6 3 4 4 5 6 11 8 11 16 22 6 10 13 11 15 17 19 20 22 23 24 24 25 25 25 28 31 32 33 32 32 34 37 41 43 49 52 47 44 41
5 1 4 5 4 5 7 10 10 7 7 7 4 12 21 2 11 14 17 20 21 22 23 24 26 27 26 28 31 29 32 34 33 33 34 35 40 41 45 49 50 50 49 45
2 6 3 4 4 4 5 5 8 9 9 10 12 6 13 18 7 12 14 20 22 24 25 26 26 26 27 28 29 35 35 33 34 34 35 37 42 44 45 46 46 52 54 47
0 2 3 3 2 2 3 5 7 8 5 7 6 9 11 5 5 8 14 19 21 24 26 26 26 26 24 23 23 28 31 33 31 35 37 40 42 43 40 45 47 49 53 50
2 3 1 1 3 3 3 4 3 4 5 6 2 8 6 3 7 8 12 18 22 26 27 30 31 30 26 23 20 19 18 23 26 31 36 39 40 42 41 42 44 43 48 49
3 3 5 1 2 1 3 3 4 6 3 4 12 8 2 5 8 13 16 18 22 26 28 31 30 28 27 24 21 17 15 13 14 22 28 29 35 36 39 37 36 41 42 42
4 5 3 6 2 4 3 7 6 12 13 9 7 2 5 7 11 16 20 23 26 29 30 31 31 28 26 23 20 19 14 10 6 13 19 24 29 33 36 35 34 33 34 36
1 4 7 6 3 7 13 1 3 4 3 5 5 9 3 13 16 16 17 23 25 28 31 34 33 31 25 23 20 17 12 11 8 4 16 22 22 28 31 31 29 30 29 29
3 4 2 4 6 4 3 4 6 4 6 4 4 1 6 8 10 13 16 21 25 27 33 33 34 32 29 25 23 21 18 14 9 2 10 18 21 22 24 26 25 25 25 22
2 2 4 8 8 7 8 4 3 2 2 3 5 3 8 8 9 14 17 20 22 24 30 31 34 35 33 31 31 28 24 21 17 10 10 13 16 15 17 19 19 19 20 20
5 2 4 2 4 2 3 4 4 6 7 12 5 2 7 10 11 15 18 22 24 25 28 30 34 36 36 35 36 34 31 27 21 18 12 11 13 12 10 12 14 15 18 19
4 4 5 6 6 5 5 7 11 8 6 8 2 4 8 11 13 17 21 22 23 25 29 36 39 38 39 41 40 37 37 31 24 24 19 19 14 14 13 10 11 12 12 15
6 5 9 14 16 12 8 4 3 7 16 7 6 5 7 9 10 16 18 22 25 28 32 38 40 42 45 44 41 39 38 37 34 32 23 23 18 18 18 17 20 22 22 19
5 3 1 5 11 6 7 7 2 8 7 10 12 8 5 8 11 17 20 22 25 27 27 30 35 40 43 44 43 40 40 39 37 36 34 29 23 18 23 23 23 19 17 16
3 2 1 4 14 10 4 5 4 3 11 2 2 6 5 8 14 17 19 20 22 23 27 30 33 37 40 42 41 42 41 39 39 40 39 32 32 26 23 22 21 21 17 12
3 5 2 2 5 2 4 8 9 11 8 8 10 8 8 11 13 16 17 17 20 23 26 28 32 35 38 41 43 42 42 43 43 43 41 37 34 33 27 24 25 22 16 14
11 5 3 3 2 3 4 1 1 3 4 5 2 5 8 9 5 16 17 17 18 22 23 26 28 31 35 39 41 43 44 44 44 45 42 38 36 35 34 33 29 26 23 23
2 10 5 3 3 5 3 2 2 3 1 4 1 3 2 10 3 3 13 16 19 22 25 25 28 29 32 36 36 40 43 43 44 42 40 39 38 38 37 35 36 33 31 30
1 2 6 3 2 2 3 7 2 3 3 6 7 5 7 6 7 4 10 15 18 22 24 25 29 32 32 32 34 38 39 42 39 37 37 37 38 37 37 36 34 34 34 32
2 1 1 1 2 4 9 2 3 8 11 13 13 16 22 17 13 11 13 16 18 20 22 26 29 31 32 32 34 35 37 33 33 33 35 36 35 35 34 34 34 34 33 34
1 2 2 3 2 4 7 11 9 8 17 13 16 15 18 18 14 12 13 15 17 19 22 24 26 28 30 31 32 33 32 30 30 30 32 32 32 32 32 32 32 33 33 33
2 0 3 4 3 6 7 9 11 12 17 17 15 15 14 17 14 14 13 14 15 17 19 21 23 27 28 29 30 30 29 28 28 29 30 29 30 30 30 31 31 31 31 30
0 0 6 4 7 9 6 9 13 17 18 18 15 13 14 14 15 14 14 13 14 15 17 19 22 23 25 25 26 27 28 27 28 28 29 29 28 28 28 28 28 27 26 24
1 3 3 2 12 6 8 13 15 17 17 15 16 15 14 12 14 13 14 13 12 13 15 17 19 21 22 22 24 25 27 27 27 28 28 27 26 25 24 23 22 22 21 20

GFSCGP_850_spd_114.txt.gz
Wind_Speed
11 10 14 14 11 12 11 13 16 14 12 15 17 19 18 22 22 24 23 18 17 17 15 13 13 15 18 18 21 22 26 23 21 21 27 28 32 32 33 34 37 38 40 37
8 16 14 8 10 12 13 15 16 12 6 12 20 29 21 20 11 8 13 11 13 16 17 16 17 17 17 19 20 20 21 22 20 18 22 29 30 31 35 36 38 39 38 38
18 9 1 9 11 12 13 14 13 14 15 17 21 27 8 12 2 2 4 11 14 17 21 23 23 22 22 21 21 22 23 22 23 23 21 25 29 31 32 36 40 40 43 44
13 14 11 12 13 10 15 9 10 11 11 12 9 15 19 12 8 2 9 14 18 21 23 24 26 25 23 24 24 25 27 28 26 25 23 25 32 36 38 33 39 47 50 49
4 7 9 12 12 7 11 5 10 12 15 16 19 10 17 12 7 7 10 16 19 21 24 25 26 26 26 24 25 26 28 31 30 26 25 26 31 37 34 33 32 39 50 55
9 2 6 9 4 8 8 12 16 14 12 12 21 16 16 4 4 5 11 16 20 23 24 25 25 25 24 24 25 27 29 32 32 35 32 29 32 36 37 35 34 35 45 54
9 13 4 6 9 7 10 8 6 8 8 10 3 6 14 10 3 5 10 14 17 21 24 27 27 28 26 26 27 27 27 30 29 32 34 36 32 37 40 37 36 32 39 44
9 8 10 6 10 5 8 7 7 10 9 10 8 8 0 6 7 9 11 16 19 22 24 26 27 28 27 26 26 27 27 28 26 26 28 33 40 33 41 38 34 34 37 40
4 6 4 4 4 3 5 9 11 16 16 13 11 10 6 5 8 15 19 20 22 24 27 28 28 27 27 28 26 25 25 24 21 21 22 26 35 28 38 36 34 33 35 36
1 5 7 5 7 12 13 2 4 8 5 8 7 11 3 9 13 14 16 20 24 26 28 29 28 28 27 27 23 20 18 17 17 16 15 22 27 29 31 32 36 32 31 30
4 4 3 3 8 10 7 11 10 7 8 4 5 2 6 8 9 13 16 20 22 25 28 31 31 31 30 28 24 21 16 18 13 10 8 9 22 27 23 29 31 28 27 27
5 4 7 9 4 9 12 10 12 9 6 6 6 6 7 7 8 13 16 20 21 23 26 30 32 34 35 32 31 26 22 21 17 12 6 7 17 20 19 21 24 26 26 27
7 6 4 6 4 7 4 9 10 7 8 14 9 1 6 8 10 13 16 20 23 24 26 26 34 37 38 35 32 30 31 28 24 20 16 14 17 16 15 15 15 19 22 21
5 6 9 8 7 3 5 6 9 10 7 12 9 5 6 9 9 14 18 19 21 22 23 25 28 34 37 36 35 35 38 35 33 29 29 22 16 14 15 16 17 19 20 20
3 7 9 14 16 13 12 12 11 7 9 9 3 6 6 5 7 12 14 18 20 23 26 28 31 38 40 38 39 39 39 41 39 38 35 35 22 18 19 20 19 18 19 21
7 7 2 10 14 15 5 4 8 4 3 5 12 8 4 5 7 12 16 19 21 23 25 28 30 33 39 42 44 43 42 42 43 44 38 38 38 28 26 26 27 27 26 25
5 6 3 2 1 9 6 2 3 4 5 2 3 7 7 7 11 14 16 18 20 22 23 25 27 30 34 37 40 44 43 41 42 46 41 40 40 37 37 31 31 31 27 23
3 6 3 2 7 5 5 5 8 8 6 8 12 10 10 11 13 13 15 16 18 20 22 24 25 28 32 33 37 35 41 45 44 45 44 42 40 40 38 35 33 34 31 29
10 6 3 4 9 4 8 6 4 1 4 1 6 8 10 10 7 15 15 14 15 17 18 20 22 25 29 33 35 36 41 42 46 47 45 43 41 40 39 40 36 34 33 34
9 12 6 6 4 4 6 5 3 1 4 4 5 7 9 9 3 4 10 12 14 19 21 24 26 28 31 33 34 38 40 42 43 42 41 40 40 40 40 37 36 36 36 36
4 5 13 10 4 4 4 1 5 4 4 6 7 8 11 4 8 8 7 10 13 17 22 24 28 31 31 33 34 37 37 40 36 35 35 36 37 38 37 35 35 35 36 36
3 3 4 3 3 4 4 5 4 8 11 12 13 13 18 17 14 11 10 12 14 16 21 24 27 29 30 31 32 34 36 32 31 31 32 33 33 33 32 32 33 33 33 32
3 2 1 4 4 4 7 12 14 12 17 15 16 14 15 16 13 11 10 11 13 15 17 21 24 25 28 29 30 32 31 30 29 29 31 30 31 31 31 31 31 31 31 30
3 3 1 5 5 8 10 10 13 14 17 15 15 14 13 15 12 11 10 10 11 14 16 17 19 23 25 27 28 28 26 27 28 29 30 30 31 29 31 30 30 31 31 30
2 7 6 4 7 10 7 10 15 17 16 16 14 13 14 14 14 12 11 10 11 13 15 16 18 20 22 22 23 24 25 25 26 27 28 28 27 28 25 29 31 29 29 27
5 3 3 2 15 2 17 15 17 19 17 15 16 15 13 13 13 11 10 9 10 11 11 13 15 16 17 18 20 21 22 23 24 22 23 26 24 24 23 21 20 25 24 24

GFSCGP_850_spd_117.txt.gz
Wind_Speed
17 14 15 17 17 17 16 18 21 21 17 20 19 22 21 21 27 27 25 24 18 7 10 13 16 17 18 17 18 17 16 15 15 14 17 23 29 30 31 34 34 35 35 35
15 17 17 18 14 13 16 20 22 22 20 11 19 24 23 24 29 26 13 5 7 11 15 16 17 18 18 19 20 20 19 17 15 15 16 20 27 32 35 35 37 39 36 37
20 16 7 7 15 15 17 19 20 21 19 21 22 30 23 15 5 9 6 3 6 11 16 19 20 21 21 21 21 22 22 20 19 17 19 21 25 32 30 40 41 39 41 40
18 18 16 19 16 15 20 14 17 14 15 17 20 21 26 22 24 12 8 5 9 14 17 20 23 24 24 24 22 21 23 22 20 19 19 21 24 28 33 36 36 41 41 45
17 11 11 15 17 14 16 12 10 16 18 20 30 14 26 19 13 14 6 9 13 16 20 23 24 26 27 25 25 25 24 23 21 21 21 22 24 27 30 30 39 39 41 43
16 3 8 12 11 8 12 11 16 18 17 17 25 21 22 5 9 7 7 11 15 20 23 24 25 27 28 27 27 26 26 24 22 21 23 25 26 28 29 31 30 40 41 45
18 17 13 5 14 12 11 13 11 13 12 16 20 12 8 9 10 11 13 19 21 21 24 27 29 30 30 30 30 28 26 27 25 25 26 28 30 30 30 33 40 31 39 40
10 12 15 11 14 15 15 14 12 19 15 17 21 9 4 11 11 12 12 14 17 21 24 26 28 28 28 28 29 30 29 28 27 28 31 31 34 35 34 35 40 38 37 41
8 12 3 3 8 6 7 14 12 17 18 16 17 20 12 9 11 14 15 16 19 21 23 25 26 26 28 28 29 28 30 28 27 29 31 31 32 36 39 35 33 45 36 38
4 8 11 8 6 14 14 10 6 7 6 12 11 14 3 9 11 13 14 17 20 22 23 25 27 28 28 29 29 26 22 24 24 23 24 26 28 32 36 31 33 40 41 35
7 7 6 4 10 15 12 12 13 13 11 9 10 2 4 6 8 11 15 20 20 22 24 28 31 28 29 28 29 27 23 20 19 17 15 16 21 25 30 30 33 38 40 37
9 5 11 16 11 9 14 16 15 11 13 7 13 7 5 5 6 11 15 17 18 21 24 27 31 32 36 36 32 31 29 23 22 14 12 14 8 4 15 21 27 32 32 30
6 7 7 8 7 10 9 14 14 9 9 15 9 2 5 6 9 12 14 16 19 22 25 27 30 35 37 38 37 36 34 33 29 17 18 13 10 12 11 14 15 23 22 25
2 8 9 11 10 5 5 7 9 12 11 14 12 2 5 7 8 11 14 16 18 21 24 26 29 33 34 38 41 39 36 37 36 32 33 30 23 17 11 10 13 12 16 22
8 10 10 15 16 15 13 12 12 11 15 10 7 2 4 6 7 10 12 15 19 22 24 26 27 30 32 37 40 39 38 40 41 42 43 46 35 26 20 20 20 20 20 21
12 7 7 11 16 15 15 15 13 9 8 5 2 4 5 7 7 10 13 16 19 21 23 25 27 28 32 35 37 36 39 42 43 45 45 46 46 42 37 30 26 26 27 25
10 5 6 7 3 4 7 9 8 3 3 5 9 8 8 7 9 11 12 15 17 19 21 24 26 28 30 33 33 34 39 41 44 46 47 46 46 45 46 40 37 37 33 30
6 7 6 5 4 8 4 4 4 5 4 7 11 10 10 11 11 11 12 13 15 17 19 20 22 24 26 28 29 29 32 41 45 46 47 47 46 45 45 45 45 44 43 40
8 5 4 4 9 6 8 7 7 7 6 6 11 12 14 14 15 15 12 12 13 14 15 17 18 21 25 28 31 30 34 37 43 45 45 44 44 43 43 44 45 44 41 44
12 12 9 5 7 3 9 11 6 6 6 11 11 13 14 12 3 5 6 9 11 14 16 19 22 24 26 28 29 33 35 37 41 40 39 38 39 39 39 38 41 40 41 42
4 4 14 12 8 4 6 7 6 5 5 12 11 11 12 5 6 13 8 9 10 14 18 19 22 25 27 28 29 32 33 35 33 33 34 35 36 36 36 35 36 35 36 36
8 5 7 10 6 5 3 7 4 6 12 14 14 14 20 18 15 12 9 9 9 11 15 19 22 24 24 25 27 30 32 30 30 32 32 35 35 35 36 35 34 34 33 33
4 3 4 5 4 5 4 9 12 12 16 16 18 17 19 18 15 12 10 8 8 11 12 15 19 21 23 25 26 26 27 28 28 29 32 32 32 35 35 35 35 36 35 34
3 2 1 6 6 6 7 8 12 15 18 18 18 18 17 18 14 12 9 8 8 9 11 11 13 18 21 23 24 26 24 25 27 28 29 30 32 30 32 34 34 34 34 33
2 7 5 4 7 9 8 12 15 18 18 18 16 16 17 16 14 12 10 8 8 9 10 11 13 15 17 19 21 22 24 25 24 26 27 26 24 27 25 31 33 33 33 31
7 3 4 1 18 5 19 16 18 19 18 17 18 17 14 14 14 12 10 8 7 8 8 10 12 12 14 15 17 20 21 21 22 21 22 25 22 23 23 22 20 27 31 30

GFSCGP_850_spd_120.txt.gz
Wind_Speed
16 11 14 17 17 20 20 21 21 19 19 19 20 21 21 19 23 24 23 26 26 19 8 9 13 16 19 20 21 21 22 20 19 18 16 14 18 26 29 32 32 39 35 39
15 17 19 17 17 19 21 19 20 21 21 19 21 20 20 18 22 31 32 16 16 12 13 14 16 17 19 20 23 24 23 23 22 19 19 24 27 27 23 32 37 38 39 40
19 15 16 11 12 15 20 18 19 22 21 20 18 23 20 23 26 22 11 15 16 14 15 17 19 19 19 20 23 23 24 24 24 23 24 25 33 33 32 29 28 40 40 40
17 18 18 20 20 17 20 17 21 22 16 15 18 17 20 22 21 21 23 19 14 15 17 19 20 21 22 23 22 23 24 26 26 24 23 22 25 30 32 29 31 30 40 42
15 12 14 16 15 16 21 15 14 16 15 16 28 13 17 21 18 13 15 14 15 18 19 19 21 22 23 24 25 24 26 28 27 24 25 25 28 32 34 38 35 32 27 44
23 23 14 12 12 13 10 11 15 15 14 14 23 17 17 4 10 12 11 14 14 15 17 18 21 23 24 26 28 28 28 27 28 29 29 29 28 32 35 38 43 41 31 31
16 19 17 17 12 13 13 9 8 8 10 14 19 16 13 14 11 12 11 13 14 15 17 21 25 28 29 31 32 31 31 32 31 29 30 33 33 32 34 36 38 42 46 32
10 11 8 5 13 11 15 12 8 16 14 17 20 14 6 14 17 15 13 12 15 20 23 25 28 31 31 32 33 34 33 33 33 29 29 32 34 35 35 37 39 42 43 45
8 13 5 5 2 4 7 11 14 17 14 13 12 19 11 14 13 15 16 19 23 24 25 27 28 30 32 33 32 33 33 32 31 29 28 29 31 33 35 39 41 43 45 49
3 12 12 16 15 9 11 11 10 5 8 13 9 5 3 8 11 12 14 16 16 18 20 24 29 29 31 32 31 30 29 28 26 23 22 23 23 26 30 35 41 44 45 47
5 9 12 14 12 14 11 12 11 11 10 10 13 3 3 4 6 8 11 14 17 21 23 26 29 28 31 34 35 31 29 28 23 19 19 17 19 22 26 28 34 43 42 45
5 4 10 17 15 15 16 15 15 9 10 11 10 5 6 3 4 9 11 14 18 21 22 25 28 30 33 36 38 33 33 31 28 24 17 14 13 11 10 13 13 23 27 34
3 4 6 6 11 13 14 13 14 10 8 16 10 2 5 2 6 9 11 16 18 20 22 27 30 31 33 37 40 34 35 36 36 32 24 21 18 15 11 9 3 9 21 25
3 5 7 10 6 9 6 11 11 12 9 12 9 3 4 2 5 8 13 15 16 18 23 26 29 28 34 37 39 37 37 38 40 41 38 36 34 28 22 20 19 17 9 7
4 7 7 11 17 17 16 15 13 9 12 9 5 6 5 4 5 9 11 13 15 19 23 25 28 29 35 35 38 37 37 40 41 44 45 43 41 39 35 33 30 20 15 10
9 7 4 10 17 17 17 16 17 12 8 10 5 5 8 9 8 9 11 12 14 17 21 22 24 27 34 33 35 36 38 40 42 43 45 45 47 49 52 46 44 42 37 30
9 5 2 6 10 4 10 8 11 8 7 8 10 4 12 9 8 9 9 10 12 15 17 19 22 24 28 30 29 31 35 39 42 44 46 47 48 51 54 54 51 53 51 46
4 4 5 7 6 9 2 2 3 6 3 6 11 13 12 12 11 9 8 8 9 12 14 16 19 22 23 26 26 27 32 37 40 42 43 44 46 48 50 50 52 51 48 50
7 6 4 4 7 1 5 5 7 7 6 9 13 13 18 18 16 11 7 7 8 10 13 17 19 22 23 25 29 29 33 36 39 40 41 41 41 43 44 47 48 48 45 49
12 9 6 6 6 3 5 9 10 6 5 13 18 17 20 20 5 4 6 6 8 12 15 17 19 21 24 26 27 31 33 35 39 39 38 39 40 40 40 40 40 39 39 41
9 7 14 10 7 1 7 8 5 4 4 18 19 19 19 9 6 16 10 8 10 13 15 16 18 21 23 24 26 30 31 34 33 33 37 37 39 40 39 37 37 37 37 35
12 8 7 8 6 9 5 7 4 5 13 15 15 21 23 23 19 16 12 9 8 10 12 16 18 21 23 23 25 28 32 29 29 32 31 35 38 38 38 37 37 37 36 37
5 1 2 2 3 4 2 5 9 11 16 17 19 18 23 24 20 16 13 9 8 9 11 14 16 18 21 23 24 25 25 28 28 29 32 32 32 34 36 38 38 38 37 37
3 1 1 5 7 6 5 7 10 13 18 18 20 22 23 25 21 18 13 10 8 8 9 10 12 16 18 21 21 23 23 24 26 28 29 30 32 32 34 36 37 37 38 36
2 7 6 4 7 8 6 11 17 20 21 21 20 20 22 22 19 17 14 11 10 11 12 12 12 13 15 15 18 20 21 22 23 24 27 26 27 28 29 32 36 39 38 38
8 3 5 2 16 7 18 19 19 20 21 20 21 20 17 18 17 14 12 11 10 9 8 9 9 10 11 13 15 18 20 20 22 22 24 26 26 26 26 25 23 26 28 31

GFSCGP_850_spd_123.txt.gz
Wind_Speed
10 3 7 11 12 13 13 11 10 8 8 13 10 15 7 12 16 15 17 11 22 21 18 17 15 13 13 16 19 21 25 28 30 32 32 31 34 31 26 22 27 32 33 39
6 10 15 14 14 13 8 8 10 11 8 8 11 15 9 6 11 19 16 19 23 22 20 17 16 15 17 19 20 21 23 27 28 29 33 31 33 36 35 31 25 32 35 38
11 10 11 13 12 15 7 6 8 14 6 5 8 11 9 9 15 23 28 25 26 25 23 21 20 20 20 22 24 25 25 27 30 31 34 37 36 37 40 39 36 28 23 34
11 15 15 10 9 9 5 6 11 10 7 5 5 7 12 15 5 15 20 25 25 24 21 20 22 23 23 25 28 29 31 30 30 33 34 34 35 37 37 39 44 40 31 22
8 5 5 6 5 5 4 6 5 5 7 6 19 1 10 13 9 10 16 22 25 24 24 24 25 27 29 30 34 34 33 33 33 32 33 36 37 40 41 42 43 47 44 36
13 19 9 8 3 2 6 4 7 6 1 6 18 7 3 3 4 9 16 21 23 24 27 29 30 32 34 34 33 33 34 34 33 33 33 33 35 40 44 44 43 44 48 48
8 14 13 15 5 3 2 3 3 4 1 8 8 8 3 10 12 12 12 18 21 23 28 31 29 35 33 34 34 33 33 35 35 34 32 32 34 36 41 45 45 42 43 47
3 7 5 6 7 8 6 5 3 4 3 9 11 4 6 12 16 16 18 19 20 24 26 24 29 29 31 32 32 33 32 34 34 32 31 30 31 33 34 37 40 41 40 43
4 5 4 7 4 4 1 2 1 2 9 9 4 6 6 9 11 13 14 15 18 23 25 27 30 28 28 31 32 32 32 32 30 28 26 25 25 26 28 29 32 37 40 39
1 3 3 2 2 3 6 3 3 3 4 7 4 2 3 4 7 9 12 14 15 20 23 25 28 28 29 31 33 31 29 28 28 25 20 19 19 20 22 23 27 32 36 39
3 4 3 5 1 4 3 2 4 6 4 3 2 5 4 3 2 5 9 12 16 21 23 24 27 27 28 31 34 30 29 30 30 25 20 18 15 14 18 21 24 28 32 33
2 2 2 5 9 13 6 6 6 4 6 5 6 5 4 5 2 8 7 9 11 15 19 23 25 26 30 32 36 31 30 31 31 30 28 21 13 11 11 8 9 8 17 25
2 1 2 7 5 4 3 3 6 3 2 9 4 4 6 6 6 6 5 8 9 12 19 24 25 28 31 31 34 30 30 32 32 34 34 30 25 21 20 16 10 6 4 5
6 2 6 6 3 5 6 10 6 3 3 3 6 5 8 6 3 1 5 6 9 14 20 23 25 26 28 28 31 30 32 34 35 37 39 40 38 36 30 27 26 23 20 18
4 3 1 4 8 11 12 12 12 7 9 4 5 4 8 7 7 4 5 6 11 16 20 22 23 24 26 27 29 30 33 35 37 38 41 44 45 43 42 40 37 37 34 34
1 2 3 5 11 14 17 14 13 10 9 2 6 3 9 15 11 7 6 8 11 14 14 16 17 20 23 26 27 30 33 34 35 39 41 42 46 49 49 50 49 45 47 44
5 4 2 5 7 6 8 13 12 8 6 4 6 5 15 12 10 7 7 8 10 10 12 15 18 19 22 25 25 29 32 34 35 38 38 40 42 45 47 47 50 52 52 52
5 5 2 3 5 4 5 3 4 4 5 10 12 13 14 16 13 10 8 7 7 9 12 14 17 18 20 22 25 28 31 34 38 38 39 38 38 39 41 43 45 46 48 48
6 4 2 2 3 3 1 2 3 3 5 9 13 15 19 19 18 10 6 7 9 10 12 14 15 18 19 22 24 27 32 36 40 42 40 39 37 37 39 41 42 42 43 44
7 5 4 2 3 3 3 4 5 0 4 14 22 19 21 21 4 4 10 9 11 11 12 13 14 17 19 21 23 27 30 31 36 39 39 39 40 40 40 40 41 41 42 43
6 5 12 6 4 4 5 8 11 1 4 21 25 25 25 6 1 22 16 14 13 13 13 12 14 18 19 19 21 26 28 31 30 30 33 35 38 39 39 39 40 40 40 40
8 6 4 4 4 7 5 4 4 2 9 20 24 27 24 18 23 23 18 15 13 13 13 12 14 17 18 17 19 24 28 24 25 28 29 32 34 36 36 37 37 38 39 40
4 5 4 4 2 2 4 4 5 9 18 17 28 29 28 25 25 23 19 15 13 12 12 12 11 14 16 17 17 20 21 23 22 25 29 30 32 34 36 37 39 40 40 40
1 2 3 3 4 6 5 7 8 13 16 17 23 27 25 28 26 22 18 15 12 11 11 9 10 12 14 15 15 17 16 18 22 24 26 27 30 32 34 37 39 40 42 42
4 6 6 2 5 7 7 12 17 18 17 18 20 23 26 28 26 22 18 16 16 15 13 8 8 10 12 12 16 16 16 16 19 21 22 25 26 29 30 33 34 35 36 35
3 5 4 5 17 7 13 21 20 21 21 21 25 25 25 26 25 21 19 17 15 15 9 7 7 8 10 10 13 17 18 16 17 20 23 23 24 26 27 26 25 24 26 28

GFSCGP_850_spd_126.txt.gz
Wind_Speed
4 3 8 10 9 7 6 9 9 6 6 6 7 2 2 6 18 22 22 24 23 19 14 14 13 13 15 15 18 20 21 23 26 27 30 37 44 47 44 42 41 33 28 33
2 6 13 9 10 8 10 13 11 5 4 5 5 11 4 10 12 22 22 23 19 16 16 19 20 19 20 23 24 25 24 26 28 31 30 31 38 44 45 40 39 39 36 30
8 8 5 9 11 12 12 10 5 3 4 4 4 9 1 11 21 24 23 19 19 20 23 26 28 29 28 28 29 30 30 29 29 31 34 35 35 41 46 43 40 42 41 38
7 14 16 15 10 7 4 3 0 3 5 3 4 6 6 9 12 14 16 20 20 23 24 28 31 33 35 33 31 31 31 32 31 29 33 34 37 40 43 47 44 41 43 43
8 3 1 3 5 2 3 1 3 2 2 4 2 2 6 9 7 8 12 14 18 21 25 28 30 32 32 33 33 33 31 31 31 32 30 35 36 38 41 45 47 45 43 44
9 6 4 6 4 4 4 4 6 3 3 4 4 6 5 4 2 5 9 14 16 22 27 27 28 29 30 30 31 32 33 31 31 31 31 31 34 34 37 40 44 46 45 43
4 6 10 8 5 4 3 5 3 4 1 6 3 3 1 5 7 8 8 11 15 22 26 28 31 31 31 32 34 33 34 34 33 33 32 30 30 31 32 34 38 41 43 42
3 5 2 2 3 7 5 8 5 6 3 4 7 5 3 6 9 10 9 10 16 23 25 27 28 29 30 31 31 31 33 33 33 33 31 28 26 26 27 29 30 34 37 39
5 4 1 4 2 4 1 1 4 1 0 3 4 2 4 6 4 6 8 9 16 23 25 25 25 25 25 27 28 29 29 29 30 29 28 26 24 23 24 25 25 27 29 31
4 2 3 1 4 3 5 4 1 2 4 8 4 4 4 5 1 3 6 11 15 19 22 23 23 23 24 25 26 27 26 27 27 26 26 25 23 21 20 22 23 24 24 25
4 4 3 2 3 4 2 1 1 3 4 4 3 5 4 7 4 3 5 8 12 17 19 20 21 22 23 23 25 27 27 28 28 27 27 25 22 18 15 17 15 17 19 19
2 4 2 6 5 4 3 4 5 5 6 4 6 9 2 6 7 7 5 6 8 12 14 17 19 21 24 25 26 28 28 28 27 26 28 29 25 19 16 14 12 9 9 9
6 1 2 7 5 3 4 0 2 3 2 7 6 6 5 7 8 7 5 3 5 9 12 15 18 21 25 27 27 26 27 27 26 26 29 32 33 27 25 23 21 18 14 12
7 4 6 7 4 3 3 5 5 3 2 3 6 4 10 10 9 8 3 1 3 7 10 13 18 21 22 25 24 26 27 27 27 29 31 34 37 35 31 32 34 32 32 30
5 5 3 3 4 4 5 11 13 8 12 6 6 7 7 12 9 9 7 4 2 5 9 13 16 18 19 21 23 25 27 27 28 30 32 35 37 39 39 38 36 40 37 38
1 2 3 4 7 8 12 17 15 16 11 6 4 6 5 16 17 13 9 7 4 4 7 10 14 17 19 20 22 25 27 28 28 30 32 33 37 39 42 44 44 44 44 43
5 4 3 4 4 7 8 10 11 4 7 7 9 6 14 11 14 14 12 9 6 3 6 9 13 16 17 19 21 25 28 29 30 32 33 32 34 35 39 39 41 43 45 44
6 5 3 3 3 4 6 3 4 6 2 4 5 14 15 14 14 14 11 11 7 5 7 10 12 14 15 16 19 23 26 30 32 33 34 33 34 36 38 38 39 39 39 40
6 4 2 2 3 6 3 3 4 4 4 8 12 13 18 20 16 7 10 9 9 9 9 10 11 13 14 15 17 19 24 28 31 34 34 34 32 34 36 38 38 38 39 40
6 4 4 3 3 4 4 2 6 2 5 13 18 19 22 21 5 4 14 12 12 10 10 10 10 12 13 14 15 18 21 24 29 32 32 33 33 33 35 35 36 36 37 39
4 2 10 6 4 6 3 7 7 4 4 19 27 27 27 7 2 23 20 17 13 12 11 10 10 12 13 13 13 17 21 24 22 24 27 30 32 34 35 34 34 34 36 36
8 7 4 4 4 10 6 6 6 3 10 23 22 28 25 12 20 27 22 20 16 14 13 10 10 11 11 10 11 18 21 17 18 21 24 27 29 31 33 34 35 35 36 37
5 6 4 7 5 1 3 3 5 7 19 21 24 27 31 23 29 27 25 20 16 14 12 9 8 10 11 10 10 14 17 15 16 19 23 25 26 29 30 33 34 37 37 38
3 4 3 2 4 4 6 6 6 8 19 25 25 28 30 27 29 28 24 21 18 15 11 9 8 8 10 9 11 12 11 12 14 17 20 22 25 26 29 32 35 35 37 37
5 6 5 2 2 3 10 11 12 12 14 18 27 29 30 28 30 28 25 21 18 16 13 9 8 9 10 9 10 11 10 11 14 18 19 22 23 25 26 27 29 31 31 32
6 6 4 5 12 6 6 19 16 15 17 19 27 29 27 28 31 28 23 22 21 18 14 11 9 8 9 9 10 11 11 11 13 16 16 17 18 21 22 22 21 20 22 26

GFSCGP_850_spd_129.txt.gz
Wind_Speed
2 3 8 9 7 4 3 4 6 7 12 5 3 4 1 12 22 18 18 16 14 13 12 14 17 19 20 21 22 23 24 25 26 29 29 28 29 34 34 36 36 33 33 33
2 7 11 6 5 6 6 6 9 7 9 4 3 3 6 7 9 14 14 13 13 14 19 21 22 22 22 23 24 25 27 27 28 30 30 32 35 35 38 41 42 39 35 35
7 7 4 6 5 6 6 5 5 8 3 4 3 3 4 5 12 12 13 12 14 19 23 26 28 28 27 27 27 28 29 30 31 32 35 34 35 40 38 39 45 42 37 33
6 12 11 7 8 6 6 5 4 1 3 3 2 5 6 5 6 7 8 12 15 18 21 24 27 29 30 31 31 31 30 28 29 29 31 35 37 40 42 40 39 45 39 36
8 4 3 3 6 7 7 5 4 4 2 1 1 2 0 5 1 2 4 6 12 17 22 25 26 28 28 29 30 32 32 32 32 31 31 34 38 37 39 40 39 40 41 38
7 3 4 7 5 5 3 2 4 4 2 5 4 7 3 4 4 2 2 6 12 18 22 23 25 27 29 31 33 33 32 32 31 31 30 31 33 35 36 37 37 34 36 36
2 5 5 7 5 3 4 5 3 4 2 5 3 1 7 6 4 4 5 1 9 17 21 24 28 30 32 34 34 32 32 33 33 32 32 30 31 31 31 32 32 32 33 34
4 5 3 3 5 5 5 8 5 5 4 5 3 5 4 5 10 8 6 2 8 16 19 22 25 27 29 30 30 30 31 32 32 31 30 29 28 27 26 26 27 29 29 28
4 4 2 2 2 5 3 2 2 1 1 1 4 3 3 6 5 6 6 1 8 14 18 21 22 24 26 26 26 25 28 28 28 28 27 26 26 25 23 22 23 26 25 24
4 1 2 1 3 4 4 5 3 2 3 9 6 6 5 9 10 6 3 1 6 12 15 17 19 21 22 23 23 23 25 27 26 24 23 22 23 23 20 20 21 20 21 21
5 4 2 1 3 6 1 1 2 2 3 5 13 7 6 9 8 7 5 2 7 12 14 15 16 17 20 21 22 23 25 27 27 25 22 22 26 21 17 15 13 13 13 14
3 4 3 7 1 2 2 5 5 3 5 5 4 16 3 4 8 10 6 2 5 9 11 13 14 16 19 21 23 25 25 27 27 25 21 21 25 23 19 18 16 17 16 14
7 2 1 5 5 2 3 3 3 2 2 11 6 9 2 6 8 10 9 4 2 5 7 9 12 15 18 21 23 23 25 25 25 27 24 22 25 28 27 26 26 25 24 24
6 3 6 8 4 3 3 5 6 6 3 5 9 11 7 9 9 11 9 4 1 3 5 8 11 13 16 19 20 21 23 23 24 27 27 28 29 29 31 31 33 37 36 35
4 5 3 2 4 3 4 5 12 9 11 8 15 11 5 15 15 18 13 7 4 1 3 7 10 12 16 18 19 20 22 24 24 26 27 30 32 33 35 38 38 40 42 43
3 2 3 4 6 7 10 14 15 14 15 12 8 23 6 8 21 17 13 11 7 3 2 5 8 11 15 17 19 21 22 24 25 28 29 28 29 31 34 36 38 40 43 44
4 5 3 5 2 5 6 11 11 5 6 7 10 10 8 5 13 16 16 13 10 5 4 4 7 10 12 15 18 20 22 23 24 26 27 29 31 33 34 35 35 36 38 39
6 6 3 2 2 3 7 3 4 6 8 8 2 3 7 13 15 14 13 14 11 8 7 7 8 9 10 11 14 17 20 22 24 25 26 27 28 30 31 33 35 37 38 39
5 5 2 2 3 7 10 4 4 5 6 6 8 11 16 21 16 6 12 13 11 10 10 10 9 10 9 10 11 13 17 20 22 24 26 26 26 28 29 32 33 34 34 36
4 3 4 3 3 4 4 2 4 3 5 8 13 15 20 18 5 3 19 16 14 12 11 10 9 9 8 10 10 11 15 18 22 23 24 24 25 25 28 28 30 31 32 34
3 1 7 4 4 7 5 6 7 4 5 15 21 24 25 7 4 19 23 18 15 13 12 11 9 8 9 8 6 11 15 18 17 17 20 22 24 26 27 27 28 29 30 30
8 7 4 5 6 11 9 6 6 4 4 20 21 25 25 12 13 30 25 22 20 17 15 12 10 8 8 7 6 10 15 15 13 14 17 20 23 24 25 27 28 29 29 31
4 6 5 9 6 3 14 3 6 5 10 16 22 25 29 22 28 29 28 24 21 18 15 12 9 8 8 6 6 10 13 10 11 12 17 19 21 22 25 28 30 31 32 34
1 3 3 2 4 6 12 10 9 9 11 17 22 25 30 27 31 30 28 25 23 19 16 12 9 8 8 7 6 9 10 9 9 12 14 17 19 21 24 27 28 29 31 31
4 7 5 5 4 5 15 18 15 12 12 19 21 22 30 27 31 31 30 26 22 19 16 13 10 10 9 8 6 8 8 7 8 10 14 16 18 19 20 22 25 27 27 25
8 6 5 6 7 5 4 11 18 15 15 20 24 26 29 27 29 31 29 26 23 20 17 14 12 10 10 9 7 7 7 6 8 10 12 14 15 17 18 19 20 22 22 22